<?xml version="1.0" encoding="UTF-8" standalone="yes"?>
<gpx
 xmlns="http://www.topografix.com/GPX/1/1"
 creator="OziExplorer Version 3956f - http://www.oziexplorer.com"
 version="1.1"
 xmlns:xsi="http://www.w3.org/2001/XMLSchema-instance"
 xsi:schemaLocation="http://www.topografix.com/GPX/1/1 http://www.topografix.com/GPX/1/1/gpx.xsd">
<metadata>
 <time>2021-11-05T03:26:38Z</time>
 <bounds minlat="30.964050" minlon="34.875580" maxlat="31.000130" maxlon="34.974950"/>
</metadata>
<wpt lat="30.9794591" lon="34.8896206">
 <time>2021-11-05T05:25:43.773Z</time>
 <name>3-Helminiot</name>
 <sym>Flag, Red</sym>
</wpt>
<wpt lat="30.9745980" lon="34.8873383">
 <time>2021-11-05T05:25:43.791Z</time>
 <name>2-Helminiot</name>
 <sym>Flag, Red</sym>
</wpt>
<wpt lat="30.9716712" lon="34.8767316">
 <time>2021-11-05T05:25:43.792Z</time>
 <name>1-Tatspit</name>
 <sym>Flag, Red</sym>
</wpt>
<wpt lat="30.9888198" lon="34.9114886">
 <time>2021-11-05T05:25:43.793Z</time>
 <name>0-Start/Finish</name>
 <sym>Flag, Red</sym>
</wpt>
<trk>
 <name>Yruham+helmoniot 31km,550m</name>
 <desc>Yruham+helmoniot 31km,550m</desc>
<trkseg>
<trkpt lat="30.9889300" lon="34.9114000">
<ele>467.000000</ele>
<time>2021-11-05T05:25:43.793Z</time>
</trkpt>
<trkpt lat="30.9887700" lon="34.9115200">
<ele>463.089996</ele>
<time>2021-11-05T05:25:43.793Z</time>
</trkpt>
<trkpt lat="30.9888100" lon="34.9115900">
<ele>462.510010</ele>
<time>2021-11-05T05:25:43.793Z</time>
</trkpt>
<trkpt lat="30.9888500" lon="34.9117200">
<ele>460.430023</ele>
<time>2021-11-05T05:25:43.793Z</time>
</trkpt>
<trkpt lat="30.9888600" lon="34.9118700">
<ele>458.330017</ele>
<time>2021-11-05T05:25:43.793Z</time>
</trkpt>
<trkpt lat="30.9888400" lon="34.9119400">
<ele>457.589996</ele>
<time>2021-11-05T05:25:43.793Z</time>
</trkpt>
<trkpt lat="30.9887600" lon="34.9124800">
<ele>457.029999</ele>
<time>2021-11-05T05:25:43.793Z</time>
</trkpt>
<trkpt lat="30.9887500" lon="34.9125400">
<ele>457.139984</ele>
<time>2021-11-05T05:25:43.793Z</time>
</trkpt>
<trkpt lat="30.9893000" lon="34.9126600">
<ele>453.799988</ele>
<time>2021-11-05T05:25:43.793Z</time>
</trkpt>
<trkpt lat="30.9892900" lon="34.9127300">
<ele>453.920013</ele>
<time>2021-11-05T05:25:43.793Z</time>
</trkpt>
<trkpt lat="30.9897200" lon="34.9128600">
<ele>455.989990</ele>
<time>2021-11-05T05:25:43.793Z</time>
</trkpt>
<trkpt lat="30.9897800" lon="34.9125900">
<ele>455.320007</ele>
<time>2021-11-05T05:25:43.793Z</time>
</trkpt>
<trkpt lat="30.9898000" lon="34.9124500">
<ele>454.489990</ele>
<time>2021-11-05T05:25:43.793Z</time>
</trkpt>
<trkpt lat="30.9898100" lon="34.9123400">
<ele>453.929993</ele>
<time>2021-11-05T05:25:43.793Z</time>
</trkpt>
<trkpt lat="30.9898300" lon="34.9122300">
<ele>453.260010</ele>
<time>2021-11-05T05:25:43.793Z</time>
</trkpt>
<trkpt lat="30.9898300" lon="34.9121600">
<ele>453.309998</ele>
<time>2021-11-05T05:25:43.793Z</time>
</trkpt>
<trkpt lat="30.9898300" lon="34.9120900">
<ele>453.410004</ele>
<time>2021-11-05T05:25:43.793Z</time>
</trkpt>
<trkpt lat="30.9898200" lon="34.9120200">
<ele>453.549988</ele>
<time>2021-11-05T05:25:43.793Z</time>
</trkpt>
<trkpt lat="30.9898100" lon="34.9119500">
<ele>453.679993</ele>
<time>2021-11-05T05:25:43.793Z</time>
</trkpt>
<trkpt lat="30.9897600" lon="34.9117800">
<ele>453.940002</ele>
<time>2021-11-05T05:25:43.793Z</time>
</trkpt>
<trkpt lat="30.9897300" lon="34.9117200">
<ele>453.989990</ele>
<time>2021-11-05T05:25:43.793Z</time>
</trkpt>
<trkpt lat="30.9896400" lon="34.9116200">
<ele>454.500000</ele>
<time>2021-11-05T05:25:43.793Z</time>
</trkpt>
<trkpt lat="30.9895800" lon="34.9115500">
<ele>454.480011</ele>
<time>2021-11-05T05:25:43.793Z</time>
</trkpt>
<trkpt lat="30.9895200" lon="34.9114900">
<ele>454.449982</ele>
<time>2021-11-05T05:25:43.793Z</time>
</trkpt>
<trkpt lat="30.9892800" lon="34.9112800">
<ele>460.560028</ele>
<time>2021-11-05T05:25:43.793Z</time>
</trkpt>
<trkpt lat="30.9877000" lon="34.9101800">
<ele>470.759979</ele>
<time>2021-11-05T05:25:43.793Z</time>
</trkpt>
<trkpt lat="30.9873500" lon="34.9099200">
<ele>475.279999</ele>
<time>2021-11-05T05:25:43.793Z</time>
</trkpt>
<trkpt lat="30.9870700" lon="34.9096500">
<ele>474.420013</ele>
<time>2021-11-05T05:25:43.793Z</time>
</trkpt>
<trkpt lat="30.9867700" lon="34.9092900">
<ele>469.500000</ele>
<time>2021-11-05T05:25:43.793Z</time>
</trkpt>
<trkpt lat="30.9865500" lon="34.9093000">
<ele>467.790009</ele>
<time>2021-11-05T05:25:43.793Z</time>
</trkpt>
<trkpt lat="30.9863500" lon="34.9092100">
<ele>464.750000</ele>
<time>2021-11-05T05:25:43.793Z</time>
</trkpt>
<trkpt lat="30.9852100" lon="34.9086800">
<ele>450.179993</ele>
<time>2021-11-05T05:25:43.793Z</time>
</trkpt>
<trkpt lat="30.9849800" lon="34.9087400">
<ele>451.149994</ele>
<time>2021-11-05T05:25:43.793Z</time>
</trkpt>
<trkpt lat="30.9846700" lon="34.9088700">
<ele>450.299988</ele>
<time>2021-11-05T05:25:43.793Z</time>
</trkpt>
<trkpt lat="30.9839100" lon="34.9093600">
<ele>452.070007</ele>
<time>2021-11-05T05:25:43.793Z</time>
</trkpt>
<trkpt lat="30.9838400" lon="34.9094200">
<ele>451.690002</ele>
<time>2021-11-05T05:25:43.793Z</time>
</trkpt>
<trkpt lat="30.9834000" lon="34.9100200">
<ele>451.679993</ele>
<time>2021-11-05T05:25:43.793Z</time>
</trkpt>
<trkpt lat="30.9826100" lon="34.9109100">
<ele>448.700012</ele>
<time>2021-11-05T05:25:43.793Z</time>
</trkpt>
<trkpt lat="30.9825300" lon="34.9109500">
<ele>449.000031</ele>
<time>2021-11-05T05:25:43.793Z</time>
</trkpt>
<trkpt lat="30.9823700" lon="34.9109900">
<ele>450.450012</ele>
<time>2021-11-05T05:25:43.793Z</time>
</trkpt>
<trkpt lat="30.9822800" lon="34.9111100">
<ele>450.830017</ele>
<time>2021-11-05T05:25:43.793Z</time>
</trkpt>
<trkpt lat="30.9820600" lon="34.9111400">
<ele>450.360016</ele>
<time>2021-11-05T05:25:43.793Z</time>
</trkpt>
<trkpt lat="30.9813800" lon="34.9111200">
<ele>449.900024</ele>
<time>2021-11-05T05:25:43.793Z</time>
</trkpt>
<trkpt lat="30.9812100" lon="34.9110800">
<ele>454.080017</ele>
<time>2021-11-05T05:25:43.793Z</time>
</trkpt>
<trkpt lat="30.9811300" lon="34.9110400">
<ele>456.490021</ele>
<time>2021-11-05T05:25:43.793Z</time>
</trkpt>
<trkpt lat="30.9802600" lon="34.9108000">
<ele>458.020020</ele>
<time>2021-11-05T05:25:43.793Z</time>
</trkpt>
<trkpt lat="30.9801600" lon="34.9108000">
<ele>458.330017</ele>
<time>2021-11-05T05:25:43.793Z</time>
</trkpt>
<trkpt lat="30.9797100" lon="34.9108600">
<ele>459.669983</ele>
<time>2021-11-05T05:25:43.793Z</time>
</trkpt>
<trkpt lat="30.9791200" lon="34.9111300">
<ele>461.190002</ele>
<time>2021-11-05T05:25:43.793Z</time>
</trkpt>
<trkpt lat="30.9788700" lon="34.9113000">
<ele>460.980011</ele>
<time>2021-11-05T05:25:43.793Z</time>
</trkpt>
<trkpt lat="30.9786200" lon="34.9119000">
<ele>455.690002</ele>
<time>2021-11-05T05:25:43.793Z</time>
</trkpt>
<trkpt lat="30.9783000" lon="34.9122900">
<ele>454.699982</ele>
<time>2021-11-05T05:25:43.793Z</time>
</trkpt>
<trkpt lat="30.9782500" lon="34.9123600">
<ele>457.430023</ele>
<time>2021-11-05T05:25:43.793Z</time>
</trkpt>
<trkpt lat="30.9782100" lon="34.9124000">
<ele>458.930023</ele>
<time>2021-11-05T05:25:43.793Z</time>
</trkpt>
<trkpt lat="30.9781600" lon="34.9127800">
<ele>463.880005</ele>
<time>2021-11-05T05:25:43.793Z</time>
</trkpt>
<trkpt lat="30.9781500" lon="34.9129000">
<ele>464.419983</ele>
<time>2021-11-05T05:25:43.793Z</time>
</trkpt>
<trkpt lat="30.9779800" lon="34.9133100">
<ele>466.859985</ele>
<time>2021-11-05T05:25:43.793Z</time>
</trkpt>
<trkpt lat="30.9776100" lon="34.9144500">
<ele>464.979980</ele>
<time>2021-11-05T05:25:43.793Z</time>
</trkpt>
<trkpt lat="30.9768700" lon="34.9152200">
<ele>471.750000</ele>
<time>2021-11-05T05:25:43.793Z</time>
</trkpt>
<trkpt lat="30.9767300" lon="34.9153600">
<ele>471.339996</ele>
<time>2021-11-05T05:25:43.793Z</time>
</trkpt>
<trkpt lat="30.9769400" lon="34.9157400">
<ele>469.679993</ele>
<time>2021-11-05T05:25:43.793Z</time>
</trkpt>
<trkpt lat="30.9770700" lon="34.9159800">
<ele>470.239990</ele>
<time>2021-11-05T05:25:43.793Z</time>
</trkpt>
<trkpt lat="30.9769400" lon="34.9162500">
<ele>470.530029</ele>
<time>2021-11-05T05:25:43.793Z</time>
</trkpt>
<trkpt lat="30.9768900" lon="34.9164800">
<ele>472.639984</ele>
<time>2021-11-05T05:25:43.793Z</time>
</trkpt>
<trkpt lat="30.9769400" lon="34.9167200">
<ele>475.209991</ele>
<time>2021-11-05T05:25:43.793Z</time>
</trkpt>
<trkpt lat="30.9770500" lon="34.9169900">
<ele>474.149994</ele>
<time>2021-11-05T05:25:43.793Z</time>
</trkpt>
<trkpt lat="30.9772000" lon="34.9171500">
<ele>470.839996</ele>
<time>2021-11-05T05:25:43.793Z</time>
</trkpt>
<trkpt lat="30.9774000" lon="34.9172400">
<ele>470.579987</ele>
<time>2021-11-05T05:25:43.793Z</time>
</trkpt>
<trkpt lat="30.9775400" lon="34.9175000">
<ele>470.720001</ele>
<time>2021-11-05T05:25:43.793Z</time>
</trkpt>
<trkpt lat="30.9774900" lon="34.9179000">
<ele>471.739990</ele>
<time>2021-11-05T05:25:43.793Z</time>
</trkpt>
<trkpt lat="30.9774400" lon="34.9181700">
<ele>472.979980</ele>
<time>2021-11-05T05:25:43.793Z</time>
</trkpt>
<trkpt lat="30.9773300" lon="34.9184800">
<ele>472.979980</ele>
<time>2021-11-05T05:25:43.793Z</time>
</trkpt>
<trkpt lat="30.9770700" lon="34.9191100">
<ele>477.259979</ele>
<time>2021-11-05T05:25:43.793Z</time>
</trkpt>
<trkpt lat="30.9766800" lon="34.9199200">
<ele>478.010010</ele>
<time>2021-11-05T05:25:43.793Z</time>
</trkpt>
<trkpt lat="30.9765300" lon="34.9201600">
<ele>474.980011</ele>
<time>2021-11-05T05:25:43.793Z</time>
</trkpt>
<trkpt lat="30.9762000" lon="34.9206300">
<ele>471.200012</ele>
<time>2021-11-05T05:25:43.793Z</time>
</trkpt>
<trkpt lat="30.9760600" lon="34.9208900">
<ele>473.700012</ele>
<time>2021-11-05T05:25:43.793Z</time>
</trkpt>
<trkpt lat="30.9758400" lon="34.9213900">
<ele>476.070007</ele>
<time>2021-11-05T05:25:43.793Z</time>
</trkpt>
<trkpt lat="30.9755200" lon="34.9220100">
<ele>479.359985</ele>
<time>2021-11-05T05:25:43.793Z</time>
</trkpt>
<trkpt lat="30.9751800" lon="34.9228200">
<ele>481.600006</ele>
<time>2021-11-05T05:25:43.793Z</time>
</trkpt>
<trkpt lat="30.9748900" lon="34.9233400">
<ele>481.649994</ele>
<time>2021-11-05T05:25:43.793Z</time>
</trkpt>
<trkpt lat="30.9748300" lon="34.9234700">
<ele>480.819977</ele>
<time>2021-11-05T05:25:43.793Z</time>
</trkpt>
<trkpt lat="30.9748500" lon="34.9234400">
<ele>481.140015</ele>
<time>2021-11-05T05:25:43.793Z</time>
</trkpt>
<trkpt lat="30.9748300" lon="34.9234700">
<ele>480.819977</ele>
<time>2021-11-05T05:25:43.793Z</time>
</trkpt>
<trkpt lat="30.9746200" lon="34.9239100">
<ele>480.009979</ele>
<time>2021-11-05T05:25:43.793Z</time>
</trkpt>
<trkpt lat="30.9745800" lon="34.9239900">
<ele>479.799988</ele>
<time>2021-11-05T05:25:43.793Z</time>
</trkpt>
<trkpt lat="30.9745000" lon="34.9240800">
<ele>478.620026</ele>
<time>2021-11-05T05:25:43.793Z</time>
</trkpt>
<trkpt lat="30.9743900" lon="34.9243800">
<ele>477.589996</ele>
<time>2021-11-05T05:25:43.793Z</time>
</trkpt>
<trkpt lat="30.9744200" lon="34.9246400">
<ele>483.149994</ele>
<time>2021-11-05T05:25:43.793Z</time>
</trkpt>
<trkpt lat="30.9744300" lon="34.9247500">
<ele>486.100006</ele>
<time>2021-11-05T05:25:43.793Z</time>
</trkpt>
<trkpt lat="30.9743800" lon="34.9254800">
<ele>491.100006</ele>
<time>2021-11-05T05:25:43.793Z</time>
</trkpt>
<trkpt lat="30.9744000" lon="34.9256900">
<ele>489.379974</ele>
<time>2021-11-05T05:25:43.793Z</time>
</trkpt>
<trkpt lat="30.9745500" lon="34.9263400">
<ele>489.790009</ele>
<time>2021-11-05T05:25:43.793Z</time>
</trkpt>
<trkpt lat="30.9745600" lon="34.9265400">
<ele>491.340027</ele>
<time>2021-11-05T05:25:43.793Z</time>
</trkpt>
<trkpt lat="30.9745600" lon="34.9268400">
<ele>492.610016</ele>
<time>2021-11-05T05:25:43.793Z</time>
</trkpt>
<trkpt lat="30.9745800" lon="34.9270600">
<ele>493.390015</ele>
<time>2021-11-05T05:25:43.793Z</time>
</trkpt>
<trkpt lat="30.9748100" lon="34.9284200">
<ele>497.000000</ele>
<time>2021-11-05T05:25:43.793Z</time>
</trkpt>
<trkpt lat="30.9749700" lon="34.9290500">
<ele>498.709991</ele>
<time>2021-11-05T05:25:43.793Z</time>
</trkpt>
<trkpt lat="30.9750400" lon="34.9291900">
<ele>501.779999</ele>
<time>2021-11-05T05:25:43.793Z</time>
</trkpt>
<trkpt lat="30.9754100" lon="34.9295900">
<ele>507.630005</ele>
<time>2021-11-05T05:25:43.793Z</time>
</trkpt>
<trkpt lat="30.9756800" lon="34.9298200">
<ele>509.520020</ele>
<time>2021-11-05T05:25:43.793Z</time>
</trkpt>
<trkpt lat="30.9761300" lon="34.9301500">
<ele>512.679993</ele>
<time>2021-11-05T05:25:43.793Z</time>
</trkpt>
<trkpt lat="30.9762100" lon="34.9302700">
<ele>512.429993</ele>
<time>2021-11-05T05:25:43.793Z</time>
</trkpt>
<trkpt lat="30.9764000" lon="34.9306900">
<ele>507.130005</ele>
<time>2021-11-05T05:25:43.793Z</time>
</trkpt>
<trkpt lat="30.9765400" lon="34.9310200">
<ele>507.090027</ele>
<time>2021-11-05T05:25:43.793Z</time>
</trkpt>
<trkpt lat="30.9766900" lon="34.9312600">
<ele>507.220032</ele>
<time>2021-11-05T05:25:43.793Z</time>
</trkpt>
<trkpt lat="30.9768900" lon="34.9314100">
<ele>508.179993</ele>
<time>2021-11-05T05:25:43.793Z</time>
</trkpt>
<trkpt lat="30.9769400" lon="34.9314900">
<ele>507.860016</ele>
<time>2021-11-05T05:25:43.793Z</time>
</trkpt>
<trkpt lat="30.9769900" lon="34.9316300">
<ele>506.250000</ele>
<time>2021-11-05T05:25:43.793Z</time>
</trkpt>
<trkpt lat="30.9768700" lon="34.9317500">
<ele>504.540009</ele>
<time>2021-11-05T05:25:43.793Z</time>
</trkpt>
<trkpt lat="30.9766900" lon="34.9320200">
<ele>503.020020</ele>
<time>2021-11-05T05:25:43.793Z</time>
</trkpt>
<trkpt lat="30.9766600" lon="34.9320900">
<ele>502.989990</ele>
<time>2021-11-05T05:25:43.793Z</time>
</trkpt>
<trkpt lat="30.9766500" lon="34.9322100">
<ele>503.000000</ele>
<time>2021-11-05T05:25:43.793Z</time>
</trkpt>
<trkpt lat="30.9766900" lon="34.9323300">
<ele>503.079987</ele>
<time>2021-11-05T05:25:43.793Z</time>
</trkpt>
<trkpt lat="30.9768800" lon="34.9325600">
<ele>504.199982</ele>
<time>2021-11-05T05:25:43.793Z</time>
</trkpt>
<trkpt lat="30.9769400" lon="34.9326700">
<ele>505.210022</ele>
<time>2021-11-05T05:25:43.793Z</time>
</trkpt>
<trkpt lat="30.9770200" lon="34.9329600">
<ele>505.760010</ele>
<time>2021-11-05T05:25:43.793Z</time>
</trkpt>
<trkpt lat="30.9770700" lon="34.9333600">
<ele>507.229980</ele>
<time>2021-11-05T05:25:43.793Z</time>
</trkpt>
<trkpt lat="30.9770800" lon="34.9338000">
<ele>510.589996</ele>
<time>2021-11-05T05:25:43.793Z</time>
</trkpt>
<trkpt lat="30.9771000" lon="34.9339600">
<ele>509.119995</ele>
<time>2021-11-05T05:25:43.793Z</time>
</trkpt>
<trkpt lat="30.9771900" lon="34.9343500">
<ele>502.550018</ele>
<time>2021-11-05T05:25:43.793Z</time>
</trkpt>
<trkpt lat="30.9772100" lon="34.9344900">
<ele>501.199982</ele>
<time>2021-11-05T05:25:43.793Z</time>
</trkpt>
<trkpt lat="30.9772000" lon="34.9349300">
<ele>500.500031</ele>
<time>2021-11-05T05:25:43.793Z</time>
</trkpt>
<trkpt lat="30.9772000" lon="34.9352000">
<ele>501.270020</ele>
<time>2021-11-05T05:25:43.793Z</time>
</trkpt>
<trkpt lat="30.9772900" lon="34.9353600">
<ele>503.440002</ele>
<time>2021-11-05T05:25:43.793Z</time>
</trkpt>
<trkpt lat="30.9773500" lon="34.9354900">
<ele>504.709991</ele>
<time>2021-11-05T05:25:43.793Z</time>
</trkpt>
<trkpt lat="30.9773400" lon="34.9355800">
<ele>504.679993</ele>
<time>2021-11-05T05:25:43.793Z</time>
</trkpt>
<trkpt lat="30.9771800" lon="34.9358700">
<ele>500.820007</ele>
<time>2021-11-05T05:25:43.793Z</time>
</trkpt>
<trkpt lat="30.9771300" lon="34.9360000">
<ele>499.739990</ele>
<time>2021-11-05T05:25:43.793Z</time>
</trkpt>
<trkpt lat="30.9771600" lon="34.9360100">
<ele>500.490021</ele>
<time>2021-11-05T05:25:43.793Z</time>
</trkpt>
<trkpt lat="30.9771300" lon="34.9360000">
<ele>499.739990</ele>
<time>2021-11-05T05:25:43.793Z</time>
</trkpt>
<trkpt lat="30.9770700" lon="34.9361800">
<ele>498.579987</ele>
<time>2021-11-05T05:25:43.793Z</time>
</trkpt>
<trkpt lat="30.9770700" lon="34.9363100">
<ele>498.319977</ele>
<time>2021-11-05T05:25:43.793Z</time>
</trkpt>
<trkpt lat="30.9771100" lon="34.9365700">
<ele>501.779999</ele>
<time>2021-11-05T05:25:43.793Z</time>
</trkpt>
<trkpt lat="30.9771700" lon="34.9367600">
<ele>505.630005</ele>
<time>2021-11-05T05:25:43.793Z</time>
</trkpt>
<trkpt lat="30.9770300" lon="34.9368800">
<ele>502.930023</ele>
<time>2021-11-05T05:25:43.793Z</time>
</trkpt>
<trkpt lat="30.9766900" lon="34.9372700">
<ele>497.089996</ele>
<time>2021-11-05T05:25:43.793Z</time>
</trkpt>
<trkpt lat="30.9765900" lon="34.9374100">
<ele>497.149994</ele>
<time>2021-11-05T05:25:43.793Z</time>
</trkpt>
<trkpt lat="30.9764400" lon="34.9376700">
<ele>498.400024</ele>
<time>2021-11-05T05:25:43.793Z</time>
</trkpt>
<trkpt lat="30.9763800" lon="34.9378500">
<ele>499.949982</ele>
<time>2021-11-05T05:25:43.793Z</time>
</trkpt>
<trkpt lat="30.9764400" lon="34.9381200">
<ele>507.449982</ele>
<time>2021-11-05T05:25:43.793Z</time>
</trkpt>
<trkpt lat="30.9764400" lon="34.9382600">
<ele>511.580017</ele>
<time>2021-11-05T05:25:43.793Z</time>
</trkpt>
<trkpt lat="30.9761300" lon="34.9388200">
<ele>514.090027</ele>
<time>2021-11-05T05:25:43.793Z</time>
</trkpt>
<trkpt lat="30.9760600" lon="34.9390200">
<ele>515.429993</ele>
<time>2021-11-05T05:25:43.793Z</time>
</trkpt>
<trkpt lat="30.9760300" lon="34.9391600">
<ele>516.290039</ele>
<time>2021-11-05T05:25:43.793Z</time>
</trkpt>
<trkpt lat="30.9760300" lon="34.9391600">
<ele>516.290039</ele>
<time>2021-11-05T05:25:43.793Z</time>
</trkpt>
<trkpt lat="30.9760300" lon="34.9391600">
<ele>516.290039</ele>
<time>2021-11-05T05:25:43.793Z</time>
</trkpt>
<trkpt lat="30.9760100" lon="34.9392400">
<ele>516.280029</ele>
<time>2021-11-05T05:25:43.793Z</time>
</trkpt>
<trkpt lat="30.9760100" lon="34.9394100">
<ele>517.559998</ele>
<time>2021-11-05T05:25:43.793Z</time>
</trkpt>
<trkpt lat="30.9760100" lon="34.9394300">
<ele>517.710022</ele>
<time>2021-11-05T05:25:43.793Z</time>
</trkpt>
<trkpt lat="30.9760300" lon="34.9395600">
<ele>519.030029</ele>
<time>2021-11-05T05:25:43.793Z</time>
</trkpt>
<trkpt lat="30.9760800" lon="34.9396800">
<ele>520.459961</ele>
<time>2021-11-05T05:25:43.793Z</time>
</trkpt>
<trkpt lat="30.9762800" lon="34.9401200">
<ele>519.789978</ele>
<time>2021-11-05T05:25:43.793Z</time>
</trkpt>
<trkpt lat="30.9763600" lon="34.9403900">
<ele>518.869995</ele>
<time>2021-11-05T05:25:43.793Z</time>
</trkpt>
<trkpt lat="30.9764400" lon="34.9404700">
<ele>518.959961</ele>
<time>2021-11-05T05:25:43.793Z</time>
</trkpt>
<trkpt lat="30.9766200" lon="34.9405200">
<ele>519.410034</ele>
<time>2021-11-05T05:25:43.793Z</time>
</trkpt>
<trkpt lat="30.9766800" lon="34.9406700">
<ele>522.039978</ele>
<time>2021-11-05T05:25:43.793Z</time>
</trkpt>
<trkpt lat="30.9767100" lon="34.9408200">
<ele>524.609985</ele>
<time>2021-11-05T05:25:43.793Z</time>
</trkpt>
<trkpt lat="30.9767100" lon="34.9411200">
<ele>527.000000</ele>
<time>2021-11-05T05:25:43.793Z</time>
</trkpt>
<trkpt lat="30.9767300" lon="34.9412800">
<ele>527.140015</ele>
<time>2021-11-05T05:25:43.793Z</time>
</trkpt>
<trkpt lat="30.9767900" lon="34.9414300">
<ele>527.309998</ele>
<time>2021-11-05T05:25:43.793Z</time>
</trkpt>
<trkpt lat="30.9768600" lon="34.9415300">
<ele>526.989990</ele>
<time>2021-11-05T05:25:43.793Z</time>
</trkpt>
<trkpt lat="30.9769100" lon="34.9415800">
<ele>526.669983</ele>
<time>2021-11-05T05:25:43.793Z</time>
</trkpt>
<trkpt lat="30.9771900" lon="34.9417200">
<ele>523.679993</ele>
<time>2021-11-05T05:25:43.793Z</time>
</trkpt>
<trkpt lat="30.9773300" lon="34.9418600">
<ele>518.809998</ele>
<time>2021-11-05T05:25:43.793Z</time>
</trkpt>
<trkpt lat="30.9774700" lon="34.9420300">
<ele>513.460022</ele>
<time>2021-11-05T05:25:43.793Z</time>
</trkpt>
<trkpt lat="30.9776200" lon="34.9422700">
<ele>512.450012</ele>
<time>2021-11-05T05:25:43.793Z</time>
</trkpt>
<trkpt lat="30.9774600" lon="34.9424000">
<ele>511.350006</ele>
<time>2021-11-05T05:25:43.793Z</time>
</trkpt>
<trkpt lat="30.9771900" lon="34.9426700">
<ele>513.270020</ele>
<time>2021-11-05T05:25:43.793Z</time>
</trkpt>
<trkpt lat="30.9770900" lon="34.9427400">
<ele>512.659973</ele>
<time>2021-11-05T05:25:43.793Z</time>
</trkpt>
<trkpt lat="30.9767900" lon="34.9428400">
<ele>515.429993</ele>
<time>2021-11-05T05:25:43.793Z</time>
</trkpt>
<trkpt lat="30.9766700" lon="34.9429300">
<ele>518.049988</ele>
<time>2021-11-05T05:25:43.793Z</time>
</trkpt>
<trkpt lat="30.9764500" lon="34.9431400">
<ele>522.429993</ele>
<time>2021-11-05T05:25:43.793Z</time>
</trkpt>
<trkpt lat="30.9758000" lon="34.9438500">
<ele>519.059998</ele>
<time>2021-11-05T05:25:43.793Z</time>
</trkpt>
<trkpt lat="30.9757400" lon="34.9439000">
<ele>519.119995</ele>
<time>2021-11-05T05:25:43.793Z</time>
</trkpt>
<trkpt lat="30.9756800" lon="34.9439300">
<ele>519.440002</ele>
<time>2021-11-05T05:25:43.793Z</time>
</trkpt>
<trkpt lat="30.9756000" lon="34.9439200">
<ele>519.339966</ele>
<time>2021-11-05T05:25:43.793Z</time>
</trkpt>
<trkpt lat="30.9755300" lon="34.9438300">
<ele>518.200012</ele>
<time>2021-11-05T05:25:43.793Z</time>
</trkpt>
<trkpt lat="30.9754700" lon="34.9435300">
<ele>514.020020</ele>
<time>2021-11-05T05:25:43.793Z</time>
</trkpt>
<trkpt lat="30.9754600" lon="34.9431400">
<ele>512.530029</ele>
<time>2021-11-05T05:25:43.793Z</time>
</trkpt>
<trkpt lat="30.9754200" lon="34.9430400">
<ele>512.580017</ele>
<time>2021-11-05T05:25:43.793Z</time>
</trkpt>
<trkpt lat="30.9753800" lon="34.9429900">
<ele>513.750000</ele>
<time>2021-11-05T05:25:43.793Z</time>
</trkpt>
<trkpt lat="30.9753100" lon="34.9429500">
<ele>514.219971</ele>
<time>2021-11-05T05:25:43.793Z</time>
</trkpt>
<trkpt lat="30.9748900" lon="34.9428600">
<ele>520.279968</ele>
<time>2021-11-05T05:25:43.793Z</time>
</trkpt>
<trkpt lat="30.9746000" lon="34.9427000">
<ele>522.880005</ele>
<time>2021-11-05T05:25:43.793Z</time>
</trkpt>
<trkpt lat="30.9743200" lon="34.9424700">
<ele>527.330017</ele>
<time>2021-11-05T05:25:43.793Z</time>
</trkpt>
<trkpt lat="30.9741700" lon="34.9423900">
<ele>529.559998</ele>
<time>2021-11-05T05:25:43.793Z</time>
</trkpt>
<trkpt lat="30.9740400" lon="34.9424000">
<ele>528.489990</ele>
<time>2021-11-05T05:25:43.793Z</time>
</trkpt>
<trkpt lat="30.9738400" lon="34.9424500">
<ele>526.359985</ele>
<time>2021-11-05T05:25:43.793Z</time>
</trkpt>
<trkpt lat="30.9737100" lon="34.9424600">
<ele>524.109985</ele>
<time>2021-11-05T05:25:43.793Z</time>
</trkpt>
<trkpt lat="30.9735400" lon="34.9424300">
<ele>522.690002</ele>
<time>2021-11-05T05:25:43.793Z</time>
</trkpt>
<trkpt lat="30.9733100" lon="34.9424700">
<ele>522.020020</ele>
<time>2021-11-05T05:25:43.793Z</time>
</trkpt>
<trkpt lat="30.9730000" lon="34.9425700">
<ele>521.210022</ele>
<time>2021-11-05T05:25:43.793Z</time>
</trkpt>
<trkpt lat="30.9727600" lon="34.9426200">
<ele>522.989990</ele>
<time>2021-11-05T05:25:43.793Z</time>
</trkpt>
<trkpt lat="30.9726700" lon="34.9426300">
<ele>524.450012</ele>
<time>2021-11-05T05:25:43.793Z</time>
</trkpt>
<trkpt lat="30.9725300" lon="34.9425900">
<ele>526.179993</ele>
<time>2021-11-05T05:25:43.793Z</time>
</trkpt>
<trkpt lat="30.9725300" lon="34.9425900">
<ele>526.179993</ele>
<time>2021-11-05T05:25:43.793Z</time>
</trkpt>
<trkpt lat="30.9724400" lon="34.9425700">
<ele>527.369995</ele>
<time>2021-11-05T05:25:43.793Z</time>
</trkpt>
<trkpt lat="30.9720100" lon="34.9423400">
<ele>533.899963</ele>
<time>2021-11-05T05:25:43.793Z</time>
</trkpt>
<trkpt lat="30.9717500" lon="34.9422900">
<ele>534.230042</ele>
<time>2021-11-05T05:25:43.793Z</time>
</trkpt>
<trkpt lat="30.9714700" lon="34.9423500">
<ele>531.820007</ele>
<time>2021-11-05T05:25:43.793Z</time>
</trkpt>
<trkpt lat="30.9712200" lon="34.9424300">
<ele>528.459961</ele>
<time>2021-11-05T05:25:43.793Z</time>
</trkpt>
<trkpt lat="30.9708800" lon="34.9425300">
<ele>525.739990</ele>
<time>2021-11-05T05:25:43.793Z</time>
</trkpt>
<trkpt lat="30.9706400" lon="34.9426500">
<ele>524.369995</ele>
<time>2021-11-05T05:25:43.793Z</time>
</trkpt>
<trkpt lat="30.9703500" lon="34.9427100">
<ele>520.630005</ele>
<time>2021-11-05T05:25:43.793Z</time>
</trkpt>
<trkpt lat="30.9700200" lon="34.9427200">
<ele>524.630005</ele>
<time>2021-11-05T05:25:43.793Z</time>
</trkpt>
<trkpt lat="30.9695600" lon="34.9425900">
<ele>533.679993</ele>
<time>2021-11-05T05:25:43.793Z</time>
</trkpt>
<trkpt lat="30.9691700" lon="34.9426300">
<ele>539.479980</ele>
<time>2021-11-05T05:25:43.793Z</time>
</trkpt>
<trkpt lat="30.9690600" lon="34.9426600">
<ele>538.710022</ele>
<time>2021-11-05T05:25:43.793Z</time>
</trkpt>
<trkpt lat="30.9689100" lon="34.9427400">
<ele>537.959961</ele>
<time>2021-11-05T05:25:43.793Z</time>
</trkpt>
<trkpt lat="30.9687700" lon="34.9429100">
<ele>539.660034</ele>
<time>2021-11-05T05:25:43.793Z</time>
</trkpt>
<trkpt lat="30.9687200" lon="34.9430100">
<ele>541.649963</ele>
<time>2021-11-05T05:25:43.793Z</time>
</trkpt>
<trkpt lat="30.9686800" lon="34.9432100">
<ele>545.250000</ele>
<time>2021-11-05T05:25:43.793Z</time>
</trkpt>
<trkpt lat="30.9686900" lon="34.9435900">
<ele>549.389954</ele>
<time>2021-11-05T05:25:43.793Z</time>
</trkpt>
<trkpt lat="30.9687000" lon="34.9437000">
<ele>549.219971</ele>
<time>2021-11-05T05:25:43.793Z</time>
</trkpt>
<trkpt lat="30.9687000" lon="34.9437000">
<ele>549.219971</ele>
<time>2021-11-05T05:25:43.793Z</time>
</trkpt>
<trkpt lat="30.9687000" lon="34.9437000">
<ele>549.219971</ele>
<time>2021-11-05T05:25:43.793Z</time>
</trkpt>
<trkpt lat="30.9687400" lon="34.9439800">
<ele>547.130005</ele>
<time>2021-11-05T05:25:43.793Z</time>
</trkpt>
<trkpt lat="30.9687400" lon="34.9440700">
<ele>545.809998</ele>
<time>2021-11-05T05:25:43.793Z</time>
</trkpt>
<trkpt lat="30.9687100" lon="34.9442600">
<ele>543.489990</ele>
<time>2021-11-05T05:25:43.793Z</time>
</trkpt>
<trkpt lat="30.9686700" lon="34.9443700">
<ele>542.589966</ele>
<time>2021-11-05T05:25:43.793Z</time>
</trkpt>
<trkpt lat="30.9684900" lon="34.9446800">
<ele>540.320007</ele>
<time>2021-11-05T05:25:43.793Z</time>
</trkpt>
<trkpt lat="30.9682400" lon="34.9450200">
<ele>539.260010</ele>
<time>2021-11-05T05:25:43.793Z</time>
</trkpt>
<trkpt lat="30.9681900" lon="34.9451400">
<ele>540.210022</ele>
<time>2021-11-05T05:25:43.793Z</time>
</trkpt>
<trkpt lat="30.9681600" lon="34.9452800">
<ele>541.529968</ele>
<time>2021-11-05T05:25:43.793Z</time>
</trkpt>
<trkpt lat="30.9679900" lon="34.9463000">
<ele>547.599976</ele>
<time>2021-11-05T05:25:43.793Z</time>
</trkpt>
<trkpt lat="30.9679800" lon="34.9466400">
<ele>549.809998</ele>
<time>2021-11-05T05:25:43.793Z</time>
</trkpt>
<trkpt lat="30.9679500" lon="34.9468500">
<ele>550.500000</ele>
<time>2021-11-05T05:25:43.793Z</time>
</trkpt>
<trkpt lat="30.9679600" lon="34.9470600">
<ele>550.140015</ele>
<time>2021-11-05T05:25:43.793Z</time>
</trkpt>
<trkpt lat="30.9680500" lon="34.9474000">
<ele>548.709961</ele>
<time>2021-11-05T05:25:43.793Z</time>
</trkpt>
<trkpt lat="30.9681000" lon="34.9477400">
<ele>551.669983</ele>
<time>2021-11-05T05:25:43.793Z</time>
</trkpt>
<trkpt lat="30.9680900" lon="34.9480300">
<ele>554.130005</ele>
<time>2021-11-05T05:25:43.793Z</time>
</trkpt>
<trkpt lat="30.9680300" lon="34.9481400">
<ele>555.280029</ele>
<time>2021-11-05T05:25:43.793Z</time>
</trkpt>
<trkpt lat="30.9677900" lon="34.9483800">
<ele>555.320007</ele>
<time>2021-11-05T05:25:43.793Z</time>
</trkpt>
<trkpt lat="30.9677300" lon="34.9484900">
<ele>555.000000</ele>
<time>2021-11-05T05:25:43.793Z</time>
</trkpt>
<trkpt lat="30.9677300" lon="34.9486600">
<ele>555.830017</ele>
<time>2021-11-05T05:25:43.793Z</time>
</trkpt>
<trkpt lat="30.9677600" lon="34.9487800">
<ele>556.479980</ele>
<time>2021-11-05T05:25:43.793Z</time>
</trkpt>
<trkpt lat="30.9679200" lon="34.9492300">
<ele>561.869995</ele>
<time>2021-11-05T05:25:43.793Z</time>
</trkpt>
<trkpt lat="30.9681100" lon="34.9495600">
<ele>569.179993</ele>
<time>2021-11-05T05:25:43.793Z</time>
</trkpt>
<trkpt lat="30.9682100" lon="34.9498500">
<ele>572.359985</ele>
<time>2021-11-05T05:25:43.793Z</time>
</trkpt>
<trkpt lat="30.9683900" lon="34.9501600">
<ele>576.780029</ele>
<time>2021-11-05T05:25:43.793Z</time>
</trkpt>
<trkpt lat="30.9685500" lon="34.9505200">
<ele>574.850037</ele>
<time>2021-11-05T05:25:43.793Z</time>
</trkpt>
<trkpt lat="30.9686400" lon="34.9508200">
<ele>572.380005</ele>
<time>2021-11-05T05:25:43.793Z</time>
</trkpt>
<trkpt lat="30.9687100" lon="34.9512500">
<ele>566.010010</ele>
<time>2021-11-05T05:25:43.793Z</time>
</trkpt>
<trkpt lat="30.9688500" lon="34.9516600">
<ele>560.390015</ele>
<time>2021-11-05T05:25:43.793Z</time>
</trkpt>
<trkpt lat="30.9688700" lon="34.9518000">
<ele>562.029968</ele>
<time>2021-11-05T05:25:43.793Z</time>
</trkpt>
<trkpt lat="30.9688200" lon="34.9520600">
<ele>563.690002</ele>
<time>2021-11-05T05:25:43.793Z</time>
</trkpt>
<trkpt lat="30.9689300" lon="34.9521000">
<ele>563.479980</ele>
<time>2021-11-05T05:25:43.793Z</time>
</trkpt>
<trkpt lat="30.9690800" lon="34.9522200">
<ele>564.359985</ele>
<time>2021-11-05T05:25:43.793Z</time>
</trkpt>
<trkpt lat="30.9691900" lon="34.9523700">
<ele>564.690002</ele>
<time>2021-11-05T05:25:43.793Z</time>
</trkpt>
<trkpt lat="30.9693300" lon="34.9526700">
<ele>567.000000</ele>
<time>2021-11-05T05:25:43.793Z</time>
</trkpt>
<trkpt lat="30.9693500" lon="34.9527900">
<ele>567.250000</ele>
<time>2021-11-05T05:25:43.793Z</time>
</trkpt>
<trkpt lat="30.9693600" lon="34.9532400">
<ele>564.150024</ele>
<time>2021-11-05T05:25:43.793Z</time>
</trkpt>
<trkpt lat="30.9693800" lon="34.9533300">
<ele>563.479980</ele>
<time>2021-11-05T05:25:43.793Z</time>
</trkpt>
<trkpt lat="30.9695000" lon="34.9536000">
<ele>557.159973</ele>
<time>2021-11-05T05:25:43.793Z</time>
</trkpt>
<trkpt lat="30.9695400" lon="34.9537200">
<ele>554.399963</ele>
<time>2021-11-05T05:25:43.793Z</time>
</trkpt>
<trkpt lat="30.9695500" lon="34.9538400">
<ele>552.840027</ele>
<time>2021-11-05T05:25:43.793Z</time>
</trkpt>
<trkpt lat="30.9695500" lon="34.9538800">
<ele>552.429993</ele>
<time>2021-11-05T05:25:43.793Z</time>
</trkpt>
<trkpt lat="30.9694900" lon="34.9540700">
<ele>552.980042</ele>
<time>2021-11-05T05:25:43.793Z</time>
</trkpt>
<trkpt lat="30.9695600" lon="34.9542100">
<ele>551.559998</ele>
<time>2021-11-05T05:25:43.793Z</time>
</trkpt>
<trkpt lat="30.9696400" lon="34.9543600">
<ele>549.419983</ele>
<time>2021-11-05T05:25:43.793Z</time>
</trkpt>
<trkpt lat="30.9696700" lon="34.9544700">
<ele>548.169983</ele>
<time>2021-11-05T05:25:43.793Z</time>
</trkpt>
<trkpt lat="30.9696900" lon="34.9547600">
<ele>548.149963</ele>
<time>2021-11-05T05:25:43.793Z</time>
</trkpt>
<trkpt lat="30.9697800" lon="34.9551700">
<ele>550.429993</ele>
<time>2021-11-05T05:25:43.793Z</time>
</trkpt>
<trkpt lat="30.9698000" lon="34.9553000">
<ele>550.770020</ele>
<time>2021-11-05T05:25:43.793Z</time>
</trkpt>
<trkpt lat="30.9697700" lon="34.9554900">
<ele>552.429993</ele>
<time>2021-11-05T05:25:43.793Z</time>
</trkpt>
<trkpt lat="30.9697400" lon="34.9556200">
<ele>552.519958</ele>
<time>2021-11-05T05:25:43.793Z</time>
</trkpt>
<trkpt lat="30.9696600" lon="34.9558400">
<ele>551.940002</ele>
<time>2021-11-05T05:25:43.793Z</time>
</trkpt>
<trkpt lat="30.9694800" lon="34.9560500">
<ele>551.489990</ele>
<time>2021-11-05T05:25:43.793Z</time>
</trkpt>
<trkpt lat="30.9693800" lon="34.9562600">
<ele>551.059998</ele>
<time>2021-11-05T05:25:43.793Z</time>
</trkpt>
<trkpt lat="30.9693000" lon="34.9563600">
<ele>550.209961</ele>
<time>2021-11-05T05:25:43.793Z</time>
</trkpt>
<trkpt lat="30.9692200" lon="34.9564000">
<ele>548.350037</ele>
<time>2021-11-05T05:25:43.793Z</time>
</trkpt>
<trkpt lat="30.9690300" lon="34.9564300">
<ele>544.270020</ele>
<time>2021-11-05T05:25:43.793Z</time>
</trkpt>
<trkpt lat="30.9688300" lon="34.9565000">
<ele>542.839966</ele>
<time>2021-11-05T05:25:43.793Z</time>
</trkpt>
<trkpt lat="30.9686400" lon="34.9565200">
<ele>544.460022</ele>
<time>2021-11-05T05:25:43.793Z</time>
</trkpt>
<trkpt lat="30.9684200" lon="34.9565700">
<ele>542.929993</ele>
<time>2021-11-05T05:25:43.793Z</time>
</trkpt>
<trkpt lat="30.9681200" lon="34.9565600">
<ele>543.119995</ele>
<time>2021-11-05T05:25:43.793Z</time>
</trkpt>
<trkpt lat="30.9679400" lon="34.9565900">
<ele>544.580017</ele>
<time>2021-11-05T05:25:43.793Z</time>
</trkpt>
<trkpt lat="30.9677900" lon="34.9565700">
<ele>545.839966</ele>
<time>2021-11-05T05:25:43.793Z</time>
</trkpt>
<trkpt lat="30.9674000" lon="34.9565900">
<ele>552.160034</ele>
<time>2021-11-05T05:25:43.793Z</time>
</trkpt>
<trkpt lat="30.9670200" lon="34.9567700">
<ele>563.730042</ele>
<time>2021-11-05T05:25:43.793Z</time>
</trkpt>
<trkpt lat="30.9668900" lon="34.9568700">
<ele>565.419983</ele>
<time>2021-11-05T05:25:43.793Z</time>
</trkpt>
<trkpt lat="30.9668400" lon="34.9569400">
<ele>565.049988</ele>
<time>2021-11-05T05:25:43.793Z</time>
</trkpt>
<trkpt lat="30.9666600" lon="34.9573000">
<ele>568.000000</ele>
<time>2021-11-05T05:25:43.793Z</time>
</trkpt>
<trkpt lat="30.9665900" lon="34.9574000">
<ele>570.419983</ele>
<time>2021-11-05T05:25:43.793Z</time>
</trkpt>
<trkpt lat="30.9665000" lon="34.9574800">
<ele>571.510010</ele>
<time>2021-11-05T05:25:43.793Z</time>
</trkpt>
<trkpt lat="30.9663200" lon="34.9575600">
<ele>573.369995</ele>
<time>2021-11-05T05:25:43.793Z</time>
</trkpt>
<trkpt lat="30.9659300" lon="34.9580300">
<ele>579.109985</ele>
<time>2021-11-05T05:25:43.793Z</time>
</trkpt>
<trkpt lat="30.9659100" lon="34.9581400">
<ele>578.799988</ele>
<time>2021-11-05T05:25:43.793Z</time>
</trkpt>
<trkpt lat="30.9659000" lon="34.9583500">
<ele>578.130005</ele>
<time>2021-11-05T05:25:43.793Z</time>
</trkpt>
<trkpt lat="30.9658700" lon="34.9584700">
<ele>578.940002</ele>
<time>2021-11-05T05:25:43.793Z</time>
</trkpt>
<trkpt lat="30.9657800" lon="34.9586100">
<ele>579.610046</ele>
<time>2021-11-05T05:25:43.793Z</time>
</trkpt>
<trkpt lat="30.9656600" lon="34.9587600">
<ele>581.429993</ele>
<time>2021-11-05T05:25:43.793Z</time>
</trkpt>
<trkpt lat="30.9655600" lon="34.9589300">
<ele>583.919983</ele>
<time>2021-11-05T05:25:43.793Z</time>
</trkpt>
<trkpt lat="30.9655200" lon="34.9590300">
<ele>585.340027</ele>
<time>2021-11-05T05:25:43.793Z</time>
</trkpt>
<trkpt lat="30.9655200" lon="34.9592600">
<ele>590.279968</ele>
<time>2021-11-05T05:25:43.793Z</time>
</trkpt>
<trkpt lat="30.9654900" lon="34.9596100">
<ele>596.720032</ele>
<time>2021-11-05T05:25:43.793Z</time>
</trkpt>
<trkpt lat="30.9655000" lon="34.9598900">
<ele>600.450012</ele>
<time>2021-11-05T05:25:43.793Z</time>
</trkpt>
<trkpt lat="30.9654700" lon="34.9600800">
<ele>601.090027</ele>
<time>2021-11-05T05:25:43.793Z</time>
</trkpt>
<trkpt lat="30.9654700" lon="34.9602200">
<ele>602.059998</ele>
<time>2021-11-05T05:25:43.793Z</time>
</trkpt>
<trkpt lat="30.9655600" lon="34.9607200">
<ele>605.750000</ele>
<time>2021-11-05T05:25:43.793Z</time>
</trkpt>
<trkpt lat="30.9655600" lon="34.9608400">
<ele>606.250000</ele>
<time>2021-11-05T05:25:43.793Z</time>
</trkpt>
<trkpt lat="30.9655300" lon="34.9610400">
<ele>608.160034</ele>
<time>2021-11-05T05:25:43.793Z</time>
</trkpt>
<trkpt lat="30.9654700" lon="34.9612300">
<ele>609.709961</ele>
<time>2021-11-05T05:25:43.793Z</time>
</trkpt>
<trkpt lat="30.9654200" lon="34.9616600">
<ele>612.489990</ele>
<time>2021-11-05T05:25:43.793Z</time>
</trkpt>
<trkpt lat="30.9654900" lon="34.9620000">
<ele>617.669983</ele>
<time>2021-11-05T05:25:43.793Z</time>
</trkpt>
<trkpt lat="30.9654500" lon="34.9621300">
<ele>619.450012</ele>
<time>2021-11-05T05:25:43.793Z</time>
</trkpt>
<trkpt lat="30.9654000" lon="34.9621900">
<ele>619.869995</ele>
<time>2021-11-05T05:25:43.793Z</time>
</trkpt>
<trkpt lat="30.9652500" lon="34.9622600">
<ele>619.440002</ele>
<time>2021-11-05T05:25:43.793Z</time>
</trkpt>
<trkpt lat="30.9651200" lon="34.9624500">
<ele>621.520020</ele>
<time>2021-11-05T05:25:43.793Z</time>
</trkpt>
<trkpt lat="30.9649000" lon="34.9627200">
<ele>625.070007</ele>
<time>2021-11-05T05:25:43.793Z</time>
</trkpt>
<trkpt lat="30.9648100" lon="34.9627800">
<ele>628.170044</ele>
<time>2021-11-05T05:25:43.793Z</time>
</trkpt>
<trkpt lat="30.9647400" lon="34.9627900">
<ele>630.510010</ele>
<time>2021-11-05T05:25:43.793Z</time>
</trkpt>
<trkpt lat="30.9644700" lon="34.9627100">
<ele>633.919983</ele>
<time>2021-11-05T05:25:43.793Z</time>
</trkpt>
<trkpt lat="30.9644100" lon="34.9627300">
<ele>634.760010</ele>
<time>2021-11-05T05:25:43.793Z</time>
</trkpt>
<trkpt lat="30.9643400" lon="34.9628000">
<ele>636.119995</ele>
<time>2021-11-05T05:25:43.793Z</time>
</trkpt>
<trkpt lat="30.9641800" lon="34.9630700">
<ele>638.679993</ele>
<time>2021-11-05T05:25:43.793Z</time>
</trkpt>
<trkpt lat="30.9641700" lon="34.9631500">
<ele>636.950012</ele>
<time>2021-11-05T05:25:43.793Z</time>
</trkpt>
<trkpt lat="30.9641700" lon="34.9633400">
<ele>632.979980</ele>
<time>2021-11-05T05:25:43.793Z</time>
</trkpt>
<trkpt lat="30.9642000" lon="34.9636500">
<ele>632.309998</ele>
<time>2021-11-05T05:25:43.793Z</time>
</trkpt>
<trkpt lat="30.9642000" lon="34.9638000">
<ele>631.040039</ele>
<time>2021-11-05T05:25:43.793Z</time>
</trkpt>
<trkpt lat="30.9641700" lon="34.9638800">
<ele>630.990051</ele>
<time>2021-11-05T05:25:43.793Z</time>
</trkpt>
<trkpt lat="30.9640900" lon="34.9640600">
<ele>632.169983</ele>
<time>2021-11-05T05:25:43.793Z</time>
</trkpt>
<trkpt lat="30.9640500" lon="34.9641600">
<ele>632.820007</ele>
<time>2021-11-05T05:25:43.793Z</time>
</trkpt>
<trkpt lat="30.9640500" lon="34.9642400">
<ele>632.909973</ele>
<time>2021-11-05T05:25:43.793Z</time>
</trkpt>
<trkpt lat="30.9641000" lon="34.9644800">
<ele>632.299988</ele>
<time>2021-11-05T05:25:43.793Z</time>
</trkpt>
<trkpt lat="30.9641300" lon="34.9645200">
<ele>631.900024</ele>
<time>2021-11-05T05:25:43.793Z</time>
</trkpt>
<trkpt lat="30.9642800" lon="34.9647300">
<ele>628.339966</ele>
<time>2021-11-05T05:25:43.793Z</time>
</trkpt>
<trkpt lat="30.9643100" lon="34.9647800">
<ele>627.459961</ele>
<time>2021-11-05T05:25:43.793Z</time>
</trkpt>
<trkpt lat="30.9643800" lon="34.9648200">
<ele>625.170044</ele>
<time>2021-11-05T05:25:43.793Z</time>
</trkpt>
<trkpt lat="30.9649000" lon="34.9648400">
<ele>617.780029</ele>
<time>2021-11-05T05:25:43.793Z</time>
</trkpt>
<trkpt lat="30.9650000" lon="34.9648200">
<ele>617.059998</ele>
<time>2021-11-05T05:25:43.793Z</time>
</trkpt>
<trkpt lat="30.9651700" lon="34.9647600">
<ele>616.239990</ele>
<time>2021-11-05T05:25:43.793Z</time>
</trkpt>
<trkpt lat="30.9652200" lon="34.9647600">
<ele>616.190002</ele>
<time>2021-11-05T05:25:43.793Z</time>
</trkpt>
<trkpt lat="30.9652500" lon="34.9648300">
<ele>616.470032</ele>
<time>2021-11-05T05:25:43.793Z</time>
</trkpt>
<trkpt lat="30.9652500" lon="34.9649100">
<ele>616.809998</ele>
<time>2021-11-05T05:25:43.793Z</time>
</trkpt>
<trkpt lat="30.9652400" lon="34.9649900">
<ele>617.229980</ele>
<time>2021-11-05T05:25:43.793Z</time>
</trkpt>
<trkpt lat="30.9652000" lon="34.9651700">
<ele>617.729980</ele>
<time>2021-11-05T05:25:43.793Z</time>
</trkpt>
<trkpt lat="30.9650500" lon="34.9656300">
<ele>618.679993</ele>
<time>2021-11-05T05:25:43.793Z</time>
</trkpt>
<trkpt lat="30.9650200" lon="34.9657800">
<ele>619.010010</ele>
<time>2021-11-05T05:25:43.793Z</time>
</trkpt>
<trkpt lat="30.9650400" lon="34.9658600">
<ele>619.429993</ele>
<time>2021-11-05T05:25:43.793Z</time>
</trkpt>
<trkpt lat="30.9651000" lon="34.9659300">
<ele>620.080017</ele>
<time>2021-11-05T05:25:43.793Z</time>
</trkpt>
<trkpt lat="30.9651700" lon="34.9659600">
<ele>620.839966</ele>
<time>2021-11-05T05:25:43.793Z</time>
</trkpt>
<trkpt lat="30.9653200" lon="34.9659800">
<ele>622.229980</ele>
<time>2021-11-05T05:25:43.793Z</time>
</trkpt>
<trkpt lat="30.9656300" lon="34.9659400">
<ele>622.679993</ele>
<time>2021-11-05T05:25:43.793Z</time>
</trkpt>
<trkpt lat="30.9659300" lon="34.9658100">
<ele>617.840027</ele>
<time>2021-11-05T05:25:43.793Z</time>
</trkpt>
<trkpt lat="30.9659700" lon="34.9658100">
<ele>617.080017</ele>
<time>2021-11-05T05:25:43.793Z</time>
</trkpt>
<trkpt lat="30.9660300" lon="34.9658700">
<ele>616.909973</ele>
<time>2021-11-05T05:25:43.793Z</time>
</trkpt>
<trkpt lat="30.9660600" lon="34.9659600">
<ele>617.580017</ele>
<time>2021-11-05T05:25:43.793Z</time>
</trkpt>
<trkpt lat="30.9661700" lon="34.9667000">
<ele>626.779968</ele>
<time>2021-11-05T05:25:43.793Z</time>
</trkpt>
<trkpt lat="30.9662100" lon="34.9668500">
<ele>626.859985</ele>
<time>2021-11-05T05:25:43.793Z</time>
</trkpt>
<trkpt lat="30.9662700" lon="34.9668800">
<ele>625.520020</ele>
<time>2021-11-05T05:25:43.793Z</time>
</trkpt>
<trkpt lat="30.9664400" lon="34.9668400">
<ele>622.809998</ele>
<time>2021-11-05T05:25:43.793Z</time>
</trkpt>
<trkpt lat="30.9665200" lon="34.9667900">
<ele>622.669983</ele>
<time>2021-11-05T05:25:43.793Z</time>
</trkpt>
<trkpt lat="30.9665700" lon="34.9668700">
<ele>621.799988</ele>
<time>2021-11-05T05:25:43.793Z</time>
</trkpt>
<trkpt lat="30.9665500" lon="34.9670800">
<ele>620.929993</ele>
<time>2021-11-05T05:25:43.793Z</time>
</trkpt>
<trkpt lat="30.9665900" lon="34.9671900">
<ele>620.390015</ele>
<time>2021-11-05T05:25:43.793Z</time>
</trkpt>
<trkpt lat="30.9669500" lon="34.9678100">
<ele>617.239990</ele>
<time>2021-11-05T05:25:43.793Z</time>
</trkpt>
<trkpt lat="30.9670300" lon="34.9679200">
<ele>617.700012</ele>
<time>2021-11-05T05:25:43.793Z</time>
</trkpt>
<trkpt lat="30.9671300" lon="34.9680100">
<ele>617.110046</ele>
<time>2021-11-05T05:25:43.793Z</time>
</trkpt>
<trkpt lat="30.9672900" lon="34.9680800">
<ele>614.580017</ele>
<time>2021-11-05T05:25:43.793Z</time>
</trkpt>
<trkpt lat="30.9673800" lon="34.9680900">
<ele>613.000000</ele>
<time>2021-11-05T05:25:43.793Z</time>
</trkpt>
<trkpt lat="30.9676800" lon="34.9680500">
<ele>609.790039</ele>
<time>2021-11-05T05:25:43.793Z</time>
</trkpt>
<trkpt lat="30.9677500" lon="34.9680500">
<ele>609.279968</ele>
<time>2021-11-05T05:25:43.793Z</time>
</trkpt>
<trkpt lat="30.9678100" lon="34.9680900">
<ele>608.739990</ele>
<time>2021-11-05T05:25:43.793Z</time>
</trkpt>
<trkpt lat="30.9678500" lon="34.9681700">
<ele>608.020020</ele>
<time>2021-11-05T05:25:43.793Z</time>
</trkpt>
<trkpt lat="30.9679400" lon="34.9684500">
<ele>606.339966</ele>
<time>2021-11-05T05:25:43.793Z</time>
</trkpt>
<trkpt lat="30.9679900" lon="34.9685800">
<ele>606.090027</ele>
<time>2021-11-05T05:25:43.793Z</time>
</trkpt>
<trkpt lat="30.9680400" lon="34.9686600">
<ele>605.510010</ele>
<time>2021-11-05T05:25:43.793Z</time>
</trkpt>
<trkpt lat="30.9681400" lon="34.9687500">
<ele>603.589966</ele>
<time>2021-11-05T05:25:43.793Z</time>
</trkpt>
<trkpt lat="30.9682100" lon="34.9688000">
<ele>602.290039</ele>
<time>2021-11-05T05:25:43.793Z</time>
</trkpt>
<trkpt lat="30.9683100" lon="34.9688400">
<ele>600.780029</ele>
<time>2021-11-05T05:25:43.793Z</time>
</trkpt>
<trkpt lat="30.9686600" lon="34.9688300">
<ele>601.780029</ele>
<time>2021-11-05T05:25:43.793Z</time>
</trkpt>
<trkpt lat="30.9687700" lon="34.9688500">
<ele>601.230042</ele>
<time>2021-11-05T05:25:43.793Z</time>
</trkpt>
<trkpt lat="30.9690800" lon="34.9689600">
<ele>597.169983</ele>
<time>2021-11-05T05:25:43.793Z</time>
</trkpt>
<trkpt lat="30.9693400" lon="34.9690700">
<ele>592.510010</ele>
<time>2021-11-05T05:25:43.793Z</time>
</trkpt>
<trkpt lat="30.9699000" lon="34.9693900">
<ele>578.080017</ele>
<time>2021-11-05T05:25:43.793Z</time>
</trkpt>
<trkpt lat="30.9699700" lon="34.9694200">
<ele>576.700012</ele>
<time>2021-11-05T05:25:43.793Z</time>
</trkpt>
<trkpt lat="30.9701800" lon="34.9694600">
<ele>574.760010</ele>
<time>2021-11-05T05:25:43.793Z</time>
</trkpt>
<trkpt lat="30.9705900" lon="34.9694900">
<ele>576.829956</ele>
<time>2021-11-05T05:25:43.793Z</time>
</trkpt>
<trkpt lat="30.9710600" lon="34.9695800">
<ele>571.130005</ele>
<time>2021-11-05T05:25:43.793Z</time>
</trkpt>
<trkpt lat="30.9712600" lon="34.9696400">
<ele>568.940002</ele>
<time>2021-11-05T05:25:43.793Z</time>
</trkpt>
<trkpt lat="30.9713900" lon="34.9697000">
<ele>567.859985</ele>
<time>2021-11-05T05:25:43.793Z</time>
</trkpt>
<trkpt lat="30.9714000" lon="34.9697200">
<ele>568.179993</ele>
<time>2021-11-05T05:25:43.793Z</time>
</trkpt>
<trkpt lat="30.9713900" lon="34.9697500">
<ele>568.020020</ele>
<time>2021-11-05T05:25:43.793Z</time>
</trkpt>
<trkpt lat="30.9714000" lon="34.9697200">
<ele>568.179993</ele>
<time>2021-11-05T05:25:43.793Z</time>
</trkpt>
<trkpt lat="30.9715000" lon="34.9698100">
<ele>570.000000</ele>
<time>2021-11-05T05:25:43.793Z</time>
</trkpt>
<trkpt lat="30.9715500" lon="34.9699000">
<ele>570.900024</ele>
<time>2021-11-05T05:25:43.793Z</time>
</trkpt>
<trkpt lat="30.9716000" lon="34.9700900">
<ele>572.280029</ele>
<time>2021-11-05T05:25:43.793Z</time>
</trkpt>
<trkpt lat="30.9716200" lon="34.9704400">
<ele>573.589966</ele>
<time>2021-11-05T05:25:43.793Z</time>
</trkpt>
<trkpt lat="30.9716600" lon="34.9705700">
<ele>574.010010</ele>
<time>2021-11-05T05:25:43.793Z</time>
</trkpt>
<trkpt lat="30.9717400" lon="34.9709600">
<ele>577.500000</ele>
<time>2021-11-05T05:25:43.793Z</time>
</trkpt>
<trkpt lat="30.9717400" lon="34.9711300">
<ele>578.820007</ele>
<time>2021-11-05T05:25:43.793Z</time>
</trkpt>
<trkpt lat="30.9717600" lon="34.9712100">
<ele>580.320007</ele>
<time>2021-11-05T05:25:43.793Z</time>
</trkpt>
<trkpt lat="30.9719100" lon="34.9713900">
<ele>587.019958</ele>
<time>2021-11-05T05:25:43.793Z</time>
</trkpt>
<trkpt lat="30.9721100" lon="34.9717100">
<ele>594.850037</ele>
<time>2021-11-05T05:25:43.793Z</time>
</trkpt>
<trkpt lat="30.9723100" lon="34.9722700">
<ele>600.830017</ele>
<time>2021-11-05T05:25:43.793Z</time>
</trkpt>
<trkpt lat="30.9725200" lon="34.9733800">
<ele>607.139954</ele>
<time>2021-11-05T05:25:43.793Z</time>
</trkpt>
<trkpt lat="30.9726100" lon="34.9738100">
<ele>611.880005</ele>
<time>2021-11-05T05:25:43.793Z</time>
</trkpt>
<trkpt lat="30.9727000" lon="34.9739700">
<ele>613.040039</ele>
<time>2021-11-05T05:25:43.793Z</time>
</trkpt>
<trkpt lat="30.9727500" lon="34.9740400">
<ele>613.229980</ele>
<time>2021-11-05T05:25:43.793Z</time>
</trkpt>
<trkpt lat="30.9730200" lon="34.9743400">
<ele>610.700012</ele>
<time>2021-11-05T05:25:43.793Z</time>
</trkpt>
<trkpt lat="30.9731800" lon="34.9745600">
<ele>609.709961</ele>
<time>2021-11-05T05:25:43.793Z</time>
</trkpt>
<trkpt lat="30.9732400" lon="34.9746700">
<ele>609.790039</ele>
<time>2021-11-05T05:25:43.793Z</time>
</trkpt>
<trkpt lat="30.9732800" lon="34.9749300">
<ele>606.960022</ele>
<time>2021-11-05T05:25:43.793Z</time>
</trkpt>
<trkpt lat="30.9733700" lon="34.9749000">
<ele>607.619995</ele>
<time>2021-11-05T05:25:43.793Z</time>
</trkpt>
<trkpt lat="30.9735100" lon="34.9749000">
<ele>608.299988</ele>
<time>2021-11-05T05:25:43.793Z</time>
</trkpt>
<trkpt lat="30.9736900" lon="34.9749300">
<ele>608.400024</ele>
<time>2021-11-05T05:25:43.793Z</time>
</trkpt>
<trkpt lat="30.9737900" lon="34.9749500">
<ele>608.309998</ele>
<time>2021-11-05T05:25:43.793Z</time>
</trkpt>
<trkpt lat="30.9739000" lon="34.9749300">
<ele>608.570007</ele>
<time>2021-11-05T05:25:43.793Z</time>
</trkpt>
<trkpt lat="30.9740000" lon="34.9748900">
<ele>607.350037</ele>
<time>2021-11-05T05:25:43.793Z</time>
</trkpt>
<trkpt lat="30.9741200" lon="34.9748200">
<ele>606.320007</ele>
<time>2021-11-05T05:25:43.793Z</time>
</trkpt>
<trkpt lat="30.9743600" lon="34.9746300">
<ele>604.080017</ele>
<time>2021-11-05T05:25:43.793Z</time>
</trkpt>
<trkpt lat="30.9748700" lon="34.9744100">
<ele>604.580017</ele>
<time>2021-11-05T05:25:43.793Z</time>
</trkpt>
<trkpt lat="30.9751000" lon="34.9744200">
<ele>606.419983</ele>
<time>2021-11-05T05:25:43.793Z</time>
</trkpt>
<trkpt lat="30.9753900" lon="34.9745300">
<ele>607.380005</ele>
<time>2021-11-05T05:25:43.793Z</time>
</trkpt>
<trkpt lat="30.9754600" lon="34.9745400">
<ele>606.809998</ele>
<time>2021-11-05T05:25:43.793Z</time>
</trkpt>
<trkpt lat="30.9755200" lon="34.9745300">
<ele>606.299988</ele>
<time>2021-11-05T05:25:43.793Z</time>
</trkpt>
<trkpt lat="30.9756000" lon="34.9744900">
<ele>605.489990</ele>
<time>2021-11-05T05:25:43.793Z</time>
</trkpt>
<trkpt lat="30.9758300" lon="34.9742300">
<ele>599.190002</ele>
<time>2021-11-05T05:25:43.793Z</time>
</trkpt>
<trkpt lat="30.9762400" lon="34.9739100">
<ele>595.080017</ele>
<time>2021-11-05T05:25:43.793Z</time>
</trkpt>
<trkpt lat="30.9764600" lon="34.9735000">
<ele>591.960022</ele>
<time>2021-11-05T05:25:43.793Z</time>
</trkpt>
<trkpt lat="30.9767500" lon="34.9732900">
<ele>592.169983</ele>
<time>2021-11-05T05:25:43.793Z</time>
</trkpt>
<trkpt lat="30.9769500" lon="34.9729500">
<ele>592.210022</ele>
<time>2021-11-05T05:25:43.793Z</time>
</trkpt>
<trkpt lat="30.9771300" lon="34.9727100">
<ele>590.029968</ele>
<time>2021-11-05T05:25:43.793Z</time>
</trkpt>
<trkpt lat="30.9772500" lon="34.9726300">
<ele>589.229980</ele>
<time>2021-11-05T05:25:43.793Z</time>
</trkpt>
<trkpt lat="30.9777100" lon="34.9724200">
<ele>584.320007</ele>
<time>2021-11-05T05:25:43.793Z</time>
</trkpt>
<trkpt lat="30.9779600" lon="34.9722400">
<ele>582.099976</ele>
<time>2021-11-05T05:25:43.793Z</time>
</trkpt>
<trkpt lat="30.9781600" lon="34.9720400">
<ele>576.350037</ele>
<time>2021-11-05T05:25:43.793Z</time>
</trkpt>
<trkpt lat="30.9782900" lon="34.9719200">
<ele>572.590027</ele>
<time>2021-11-05T05:25:43.793Z</time>
</trkpt>
<trkpt lat="30.9784700" lon="34.9717900">
<ele>571.309998</ele>
<time>2021-11-05T05:25:43.793Z</time>
</trkpt>
<trkpt lat="30.9788200" lon="34.9716000">
<ele>569.750000</ele>
<time>2021-11-05T05:25:43.793Z</time>
</trkpt>
<trkpt lat="30.9790000" lon="34.9714700">
<ele>567.750000</ele>
<time>2021-11-05T05:25:43.793Z</time>
</trkpt>
<trkpt lat="30.9790600" lon="34.9713800">
<ele>565.809998</ele>
<time>2021-11-05T05:25:43.793Z</time>
</trkpt>
<trkpt lat="30.9792400" lon="34.9710500">
<ele>559.279968</ele>
<time>2021-11-05T05:25:43.793Z</time>
</trkpt>
<trkpt lat="30.9793600" lon="34.9708600">
<ele>557.809998</ele>
<time>2021-11-05T05:25:43.793Z</time>
</trkpt>
<trkpt lat="30.9795500" lon="34.9704100">
<ele>557.390015</ele>
<time>2021-11-05T05:25:43.793Z</time>
</trkpt>
<trkpt lat="30.9796300" lon="34.9702800">
<ele>557.369995</ele>
<time>2021-11-05T05:25:43.793Z</time>
</trkpt>
<trkpt lat="30.9797500" lon="34.9701600">
<ele>557.350037</ele>
<time>2021-11-05T05:25:43.793Z</time>
</trkpt>
<trkpt lat="30.9798500" lon="34.9700300">
<ele>556.070007</ele>
<time>2021-11-05T05:25:43.793Z</time>
</trkpt>
<trkpt lat="30.9799800" lon="34.9698500">
<ele>552.659973</ele>
<time>2021-11-05T05:25:43.793Z</time>
</trkpt>
<trkpt lat="30.9800200" lon="34.9697400">
<ele>550.299988</ele>
<time>2021-11-05T05:25:43.793Z</time>
</trkpt>
<trkpt lat="30.9801100" lon="34.9693400">
<ele>548.119995</ele>
<time>2021-11-05T05:25:43.793Z</time>
</trkpt>
<trkpt lat="30.9802600" lon="34.9689600">
<ele>546.779968</ele>
<time>2021-11-05T05:25:43.793Z</time>
</trkpt>
<trkpt lat="30.9803400" lon="34.9688300">
<ele>547.049988</ele>
<time>2021-11-05T05:25:43.793Z</time>
</trkpt>
<trkpt lat="30.9807300" lon="34.9683000">
<ele>552.679993</ele>
<time>2021-11-05T05:25:43.793Z</time>
</trkpt>
<trkpt lat="30.9808200" lon="34.9681600">
<ele>553.400024</ele>
<time>2021-11-05T05:25:43.793Z</time>
</trkpt>
<trkpt lat="30.9809000" lon="34.9679600">
<ele>552.030029</ele>
<time>2021-11-05T05:25:43.793Z</time>
</trkpt>
<trkpt lat="30.9812500" lon="34.9673400">
<ele>541.479980</ele>
<time>2021-11-05T05:25:43.793Z</time>
</trkpt>
<trkpt lat="30.9813700" lon="34.9669700">
<ele>540.859985</ele>
<time>2021-11-05T05:25:43.793Z</time>
</trkpt>
<trkpt lat="30.9814000" lon="34.9669000">
<ele>540.809998</ele>
<time>2021-11-05T05:25:43.793Z</time>
</trkpt>
<trkpt lat="30.9815500" lon="34.9667000">
<ele>541.489990</ele>
<time>2021-11-05T05:25:43.793Z</time>
</trkpt>
<trkpt lat="30.9816100" lon="34.9666600">
<ele>542.260010</ele>
<time>2021-11-05T05:25:43.793Z</time>
</trkpt>
<trkpt lat="30.9816700" lon="34.9666400">
<ele>543.299988</ele>
<time>2021-11-05T05:25:43.793Z</time>
</trkpt>
<trkpt lat="30.9817400" lon="34.9666500">
<ele>543.380005</ele>
<time>2021-11-05T05:25:43.793Z</time>
</trkpt>
<trkpt lat="30.9818400" lon="34.9667000">
<ele>543.739990</ele>
<time>2021-11-05T05:25:43.793Z</time>
</trkpt>
<trkpt lat="30.9819100" lon="34.9667500">
<ele>544.179993</ele>
<time>2021-11-05T05:25:43.793Z</time>
</trkpt>
<trkpt lat="30.9820000" lon="34.9669300">
<ele>544.539978</ele>
<time>2021-11-05T05:25:43.793Z</time>
</trkpt>
<trkpt lat="30.9820600" lon="34.9669900">
<ele>544.820007</ele>
<time>2021-11-05T05:25:43.793Z</time>
</trkpt>
<trkpt lat="30.9821800" lon="34.9670500">
<ele>544.820007</ele>
<time>2021-11-05T05:25:43.793Z</time>
</trkpt>
<trkpt lat="30.9822800" lon="34.9670600">
<ele>544.330017</ele>
<time>2021-11-05T05:25:43.793Z</time>
</trkpt>
<trkpt lat="30.9825200" lon="34.9669900">
<ele>541.760010</ele>
<time>2021-11-05T05:25:43.793Z</time>
</trkpt>
<trkpt lat="30.9833900" lon="34.9666200">
<ele>533.820007</ele>
<time>2021-11-05T05:25:43.793Z</time>
</trkpt>
<trkpt lat="30.9836100" lon="34.9665100">
<ele>531.179993</ele>
<time>2021-11-05T05:25:43.793Z</time>
</trkpt>
<trkpt lat="30.9842200" lon="34.9664100">
<ele>539.909973</ele>
<time>2021-11-05T05:25:43.793Z</time>
</trkpt>
<trkpt lat="30.9844900" lon="34.9663000">
<ele>543.070007</ele>
<time>2021-11-05T05:25:43.793Z</time>
</trkpt>
<trkpt lat="30.9845400" lon="34.9663100">
<ele>543.909973</ele>
<time>2021-11-05T05:25:43.793Z</time>
</trkpt>
<trkpt lat="30.9846700" lon="34.9663800">
<ele>546.210022</ele>
<time>2021-11-05T05:25:43.793Z</time>
</trkpt>
<trkpt lat="30.9847200" lon="34.9664300">
<ele>546.969971</ele>
<time>2021-11-05T05:25:43.793Z</time>
</trkpt>
<trkpt lat="30.9847600" lon="34.9665100">
<ele>547.000000</ele>
<time>2021-11-05T05:25:43.793Z</time>
</trkpt>
<trkpt lat="30.9848100" lon="34.9667600">
<ele>547.799988</ele>
<time>2021-11-05T05:25:43.793Z</time>
</trkpt>
<trkpt lat="30.9848400" lon="34.9668200">
<ele>548.190002</ele>
<time>2021-11-05T05:25:43.793Z</time>
</trkpt>
<trkpt lat="30.9849600" lon="34.9669800">
<ele>548.419983</ele>
<time>2021-11-05T05:25:43.793Z</time>
</trkpt>
<trkpt lat="30.9850500" lon="34.9670100">
<ele>547.339966</ele>
<time>2021-11-05T05:25:43.793Z</time>
</trkpt>
<trkpt lat="30.9853300" lon="34.9668700">
<ele>541.410034</ele>
<time>2021-11-05T05:25:43.793Z</time>
</trkpt>
<trkpt lat="30.9854000" lon="34.9668600">
<ele>540.289978</ele>
<time>2021-11-05T05:25:43.793Z</time>
</trkpt>
<trkpt lat="30.9854600" lon="34.9668800">
<ele>539.479980</ele>
<time>2021-11-05T05:25:43.793Z</time>
</trkpt>
<trkpt lat="30.9855100" lon="34.9669800">
<ele>539.159973</ele>
<time>2021-11-05T05:25:43.793Z</time>
</trkpt>
<trkpt lat="30.9856000" lon="34.9672600">
<ele>541.000000</ele>
<time>2021-11-05T05:25:43.793Z</time>
</trkpt>
<trkpt lat="30.9856000" lon="34.9673500">
<ele>541.750000</ele>
<time>2021-11-05T05:25:43.793Z</time>
</trkpt>
<trkpt lat="30.9855400" lon="34.9675700">
<ele>544.080017</ele>
<time>2021-11-05T05:25:43.793Z</time>
</trkpt>
<trkpt lat="30.9854400" lon="34.9677600">
<ele>547.549988</ele>
<time>2021-11-05T05:25:43.793Z</time>
</trkpt>
<trkpt lat="30.9854000" lon="34.9678800">
<ele>550.000000</ele>
<time>2021-11-05T05:25:43.793Z</time>
</trkpt>
<trkpt lat="30.9854200" lon="34.9679600">
<ele>551.239990</ele>
<time>2021-11-05T05:25:43.793Z</time>
</trkpt>
<trkpt lat="30.9854700" lon="34.9680000">
<ele>551.309998</ele>
<time>2021-11-05T05:25:43.793Z</time>
</trkpt>
<trkpt lat="30.9855300" lon="34.9679900">
<ele>550.380005</ele>
<time>2021-11-05T05:25:43.793Z</time>
</trkpt>
<trkpt lat="30.9858500" lon="34.9677800">
<ele>548.149963</ele>
<time>2021-11-05T05:25:43.793Z</time>
</trkpt>
<trkpt lat="30.9859600" lon="34.9677700">
<ele>548.780029</ele>
<time>2021-11-05T05:25:43.793Z</time>
</trkpt>
<trkpt lat="30.9860300" lon="34.9678100">
<ele>549.630005</ele>
<time>2021-11-05T05:25:43.793Z</time>
</trkpt>
<trkpt lat="30.9862500" lon="34.9681000">
<ele>552.659973</ele>
<time>2021-11-05T05:25:43.793Z</time>
</trkpt>
<trkpt lat="30.9863100" lon="34.9681400">
<ele>553.320007</ele>
<time>2021-11-05T05:25:43.793Z</time>
</trkpt>
<trkpt lat="30.9863800" lon="34.9681400">
<ele>553.919983</ele>
<time>2021-11-05T05:25:43.793Z</time>
</trkpt>
<trkpt lat="30.9864300" lon="34.9680800">
<ele>554.510010</ele>
<time>2021-11-05T05:25:43.793Z</time>
</trkpt>
<trkpt lat="30.9864300" lon="34.9680000">
<ele>554.600037</ele>
<time>2021-11-05T05:25:43.793Z</time>
</trkpt>
<trkpt lat="30.9863900" lon="34.9677800">
<ele>553.049988</ele>
<time>2021-11-05T05:25:43.793Z</time>
</trkpt>
<trkpt lat="30.9863500" lon="34.9673400">
<ele>553.419983</ele>
<time>2021-11-05T05:25:43.793Z</time>
</trkpt>
<trkpt lat="30.9862600" lon="34.9669300">
<ele>548.619995</ele>
<time>2021-11-05T05:25:43.793Z</time>
</trkpt>
<trkpt lat="30.9861700" lon="34.9667100">
<ele>545.210022</ele>
<time>2021-11-05T05:25:43.793Z</time>
</trkpt>
<trkpt lat="30.9860200" lon="34.9661500">
<ele>538.970032</ele>
<time>2021-11-05T05:25:43.793Z</time>
</trkpt>
<trkpt lat="30.9859900" lon="34.9658300">
<ele>538.679993</ele>
<time>2021-11-05T05:25:43.793Z</time>
</trkpt>
<trkpt lat="30.9860100" lon="34.9657000">
<ele>538.299988</ele>
<time>2021-11-05T05:25:43.793Z</time>
</trkpt>
<trkpt lat="30.9860600" lon="34.9655800">
<ele>537.959961</ele>
<time>2021-11-05T05:25:43.793Z</time>
</trkpt>
<trkpt lat="30.9861400" lon="34.9654700">
<ele>538.179993</ele>
<time>2021-11-05T05:25:43.793Z</time>
</trkpt>
<trkpt lat="30.9862600" lon="34.9653800">
<ele>538.729980</ele>
<time>2021-11-05T05:25:43.793Z</time>
</trkpt>
<trkpt lat="30.9865000" lon="34.9652400">
<ele>538.760010</ele>
<time>2021-11-05T05:25:43.793Z</time>
</trkpt>
<trkpt lat="30.9866300" lon="34.9651200">
<ele>537.450012</ele>
<time>2021-11-05T05:25:43.793Z</time>
</trkpt>
<trkpt lat="30.9868800" lon="34.9649500">
<ele>536.410034</ele>
<time>2021-11-05T05:25:43.793Z</time>
</trkpt>
<trkpt lat="30.9869700" lon="34.9649300">
<ele>536.589966</ele>
<time>2021-11-05T05:25:43.793Z</time>
</trkpt>
<trkpt lat="30.9870500" lon="34.9649600">
<ele>537.090027</ele>
<time>2021-11-05T05:25:43.793Z</time>
</trkpt>
<trkpt lat="30.9873700" lon="34.9652200">
<ele>537.570007</ele>
<time>2021-11-05T05:25:43.793Z</time>
</trkpt>
<trkpt lat="30.9874600" lon="34.9653300">
<ele>536.899963</ele>
<time>2021-11-05T05:25:43.793Z</time>
</trkpt>
<trkpt lat="30.9876300" lon="34.9656400">
<ele>541.549988</ele>
<time>2021-11-05T05:25:43.793Z</time>
</trkpt>
<trkpt lat="30.9876900" lon="34.9656700">
<ele>542.929993</ele>
<time>2021-11-05T05:25:43.793Z</time>
</trkpt>
<trkpt lat="30.9877900" lon="34.9656900">
<ele>544.599976</ele>
<time>2021-11-05T05:25:43.793Z</time>
</trkpt>
<trkpt lat="30.9878900" lon="34.9656700">
<ele>545.679993</ele>
<time>2021-11-05T05:25:43.793Z</time>
</trkpt>
<trkpt lat="30.9879700" lon="34.9656100">
<ele>545.750000</ele>
<time>2021-11-05T05:25:43.793Z</time>
</trkpt>
<trkpt lat="30.9880400" lon="34.9655300">
<ele>545.239990</ele>
<time>2021-11-05T05:25:43.793Z</time>
</trkpt>
<trkpt lat="30.9882000" lon="34.9652800">
<ele>540.049988</ele>
<time>2021-11-05T05:25:43.793Z</time>
</trkpt>
<trkpt lat="30.9882700" lon="34.9651600">
<ele>538.399963</ele>
<time>2021-11-05T05:25:43.793Z</time>
</trkpt>
<trkpt lat="30.9883600" lon="34.9648100">
<ele>533.820007</ele>
<time>2021-11-05T05:25:43.793Z</time>
</trkpt>
<trkpt lat="30.9883900" lon="34.9647500">
<ele>533.079956</ele>
<time>2021-11-05T05:25:43.793Z</time>
</trkpt>
<trkpt lat="30.9885800" lon="34.9645700">
<ele>530.410034</ele>
<time>2021-11-05T05:25:43.793Z</time>
</trkpt>
<trkpt lat="30.9886400" lon="34.9644600">
<ele>528.960022</ele>
<time>2021-11-05T05:25:43.793Z</time>
</trkpt>
<trkpt lat="30.9889200" lon="34.9638100">
<ele>526.460022</ele>
<time>2021-11-05T05:25:43.793Z</time>
</trkpt>
<trkpt lat="30.9889300" lon="34.9637300">
<ele>526.890015</ele>
<time>2021-11-05T05:25:43.793Z</time>
</trkpt>
<trkpt lat="30.9889300" lon="34.9636600">
<ele>527.219971</ele>
<time>2021-11-05T05:25:43.793Z</time>
</trkpt>
<trkpt lat="30.9889100" lon="34.9635800">
<ele>527.539978</ele>
<time>2021-11-05T05:25:43.793Z</time>
</trkpt>
<trkpt lat="30.9887600" lon="34.9632900">
<ele>528.599976</ele>
<time>2021-11-05T05:25:43.793Z</time>
</trkpt>
<trkpt lat="30.9887300" lon="34.9631700">
<ele>528.369995</ele>
<time>2021-11-05T05:25:43.793Z</time>
</trkpt>
<trkpt lat="30.9887300" lon="34.9630400">
<ele>528.320007</ele>
<time>2021-11-05T05:25:43.793Z</time>
</trkpt>
<trkpt lat="30.9887900" lon="34.9627300">
<ele>526.119995</ele>
<time>2021-11-05T05:25:43.793Z</time>
</trkpt>
<trkpt lat="30.9887500" lon="34.9623800">
<ele>523.919983</ele>
<time>2021-11-05T05:25:43.793Z</time>
</trkpt>
<trkpt lat="30.9888000" lon="34.9619800">
<ele>520.059998</ele>
<time>2021-11-05T05:25:43.793Z</time>
</trkpt>
<trkpt lat="30.9889300" lon="34.9616700">
<ele>517.029968</ele>
<time>2021-11-05T05:25:43.793Z</time>
</trkpt>
<trkpt lat="30.9890600" lon="34.9613500">
<ele>514.989990</ele>
<time>2021-11-05T05:25:43.793Z</time>
</trkpt>
<trkpt lat="30.9895500" lon="34.9608600">
<ele>514.869995</ele>
<time>2021-11-05T05:25:43.793Z</time>
</trkpt>
<trkpt lat="30.9896400" lon="34.9604500">
<ele>516.450012</ele>
<time>2021-11-05T05:25:43.793Z</time>
</trkpt>
<trkpt lat="30.9897300" lon="34.9600800">
<ele>515.839966</ele>
<time>2021-11-05T05:25:43.793Z</time>
</trkpt>
<trkpt lat="30.9896300" lon="34.9594200">
<ele>521.580017</ele>
<time>2021-11-05T05:25:43.793Z</time>
</trkpt>
<trkpt lat="30.9896300" lon="34.9590000">
<ele>520.270020</ele>
<time>2021-11-05T05:25:43.793Z</time>
</trkpt>
<trkpt lat="30.9895700" lon="34.9588300">
<ele>518.500000</ele>
<time>2021-11-05T05:25:43.793Z</time>
</trkpt>
<trkpt lat="30.9894600" lon="34.9585900">
<ele>515.330017</ele>
<time>2021-11-05T05:25:43.793Z</time>
</trkpt>
<trkpt lat="30.9894900" lon="34.9582000">
<ele>515.419983</ele>
<time>2021-11-05T05:25:43.793Z</time>
</trkpt>
<trkpt lat="30.9896800" lon="34.9577800">
<ele>514.169983</ele>
<time>2021-11-05T05:25:43.793Z</time>
</trkpt>
<trkpt lat="30.9897300" lon="34.9575000">
<ele>513.000000</ele>
<time>2021-11-05T05:25:43.793Z</time>
</trkpt>
<trkpt lat="30.9897300" lon="34.9573400">
<ele>511.339996</ele>
<time>2021-11-05T05:25:43.793Z</time>
</trkpt>
<trkpt lat="30.9898700" lon="34.9568600">
<ele>513.640015</ele>
<time>2021-11-05T05:25:43.793Z</time>
</trkpt>
<trkpt lat="30.9899700" lon="34.9563600">
<ele>512.480042</ele>
<time>2021-11-05T05:25:43.793Z</time>
</trkpt>
<trkpt lat="30.9900800" lon="34.9560000">
<ele>510.459991</ele>
<time>2021-11-05T05:25:43.793Z</time>
</trkpt>
<trkpt lat="30.9901400" lon="34.9556800">
<ele>510.790009</ele>
<time>2021-11-05T05:25:43.793Z</time>
</trkpt>
<trkpt lat="30.9902100" lon="34.9553900">
<ele>511.940002</ele>
<time>2021-11-05T05:25:43.793Z</time>
</trkpt>
<trkpt lat="30.9902300" lon="34.9549500">
<ele>508.609985</ele>
<time>2021-11-05T05:25:43.793Z</time>
</trkpt>
<trkpt lat="30.9903200" lon="34.9545700">
<ele>508.209991</ele>
<time>2021-11-05T05:25:43.793Z</time>
</trkpt>
<trkpt lat="30.9904100" lon="34.9539700">
<ele>503.260010</ele>
<time>2021-11-05T05:25:43.793Z</time>
</trkpt>
<trkpt lat="30.9904600" lon="34.9535700">
<ele>502.359985</ele>
<time>2021-11-05T05:25:43.793Z</time>
</trkpt>
<trkpt lat="30.9904600" lon="34.9533100">
<ele>502.880005</ele>
<time>2021-11-05T05:25:43.793Z</time>
</trkpt>
<trkpt lat="30.9905200" lon="34.9527500">
<ele>508.830017</ele>
<time>2021-11-05T05:25:43.793Z</time>
</trkpt>
<trkpt lat="30.9905200" lon="34.9523400">
<ele>511.899994</ele>
<time>2021-11-05T05:25:43.793Z</time>
</trkpt>
<trkpt lat="30.9905000" lon="34.9521500">
<ele>512.549988</ele>
<time>2021-11-05T05:25:43.793Z</time>
</trkpt>
<trkpt lat="30.9904500" lon="34.9520100">
<ele>511.950012</ele>
<time>2021-11-05T05:25:43.793Z</time>
</trkpt>
<trkpt lat="30.9903700" lon="34.9518600">
<ele>510.290009</ele>
<time>2021-11-05T05:25:43.793Z</time>
</trkpt>
<trkpt lat="30.9903300" lon="34.9517300">
<ele>508.869995</ele>
<time>2021-11-05T05:25:43.793Z</time>
</trkpt>
<trkpt lat="30.9902700" lon="34.9515500">
<ele>506.159973</ele>
<time>2021-11-05T05:25:43.793Z</time>
</trkpt>
<trkpt lat="30.9903400" lon="34.9511300">
<ele>502.519989</ele>
<time>2021-11-05T05:25:43.793Z</time>
</trkpt>
<trkpt lat="30.9904000" lon="34.9508200">
<ele>502.739990</ele>
<time>2021-11-05T05:25:43.793Z</time>
</trkpt>
<trkpt lat="30.9904900" lon="34.9505500">
<ele>502.760010</ele>
<time>2021-11-05T05:25:43.793Z</time>
</trkpt>
<trkpt lat="30.9906400" lon="34.9501000">
<ele>502.810028</ele>
<time>2021-11-05T05:25:43.793Z</time>
</trkpt>
<trkpt lat="30.9907300" lon="34.9494500">
<ele>498.400024</ele>
<time>2021-11-05T05:25:43.793Z</time>
</trkpt>
<trkpt lat="30.9907300" lon="34.9489300">
<ele>498.630005</ele>
<time>2021-11-05T05:25:43.793Z</time>
</trkpt>
<trkpt lat="30.9908300" lon="34.9485000">
<ele>498.589996</ele>
<time>2021-11-05T05:25:43.793Z</time>
</trkpt>
<trkpt lat="30.9909300" lon="34.9479700">
<ele>497.460022</ele>
<time>2021-11-05T05:25:43.793Z</time>
</trkpt>
<trkpt lat="30.9909700" lon="34.9476100">
<ele>497.979980</ele>
<time>2021-11-05T05:25:43.793Z</time>
</trkpt>
<trkpt lat="30.9910800" lon="34.9468900">
<ele>498.170013</ele>
<time>2021-11-05T05:25:43.793Z</time>
</trkpt>
<trkpt lat="30.9911100" lon="34.9465100">
<ele>497.279999</ele>
<time>2021-11-05T05:25:43.793Z</time>
</trkpt>
<trkpt lat="30.9911300" lon="34.9463700">
<ele>495.940002</ele>
<time>2021-11-05T05:25:43.793Z</time>
</trkpt>
<trkpt lat="30.9913400" lon="34.9458600">
<ele>497.710022</ele>
<time>2021-11-05T05:25:43.793Z</time>
</trkpt>
<trkpt lat="30.9913900" lon="34.9453900">
<ele>498.010010</ele>
<time>2021-11-05T05:25:43.793Z</time>
</trkpt>
<trkpt lat="30.9914000" lon="34.9452300">
<ele>497.809998</ele>
<time>2021-11-05T05:25:43.793Z</time>
</trkpt>
<trkpt lat="30.9913900" lon="34.9450600">
<ele>496.439972</ele>
<time>2021-11-05T05:25:43.793Z</time>
</trkpt>
<trkpt lat="30.9913500" lon="34.9449600">
<ele>495.350006</ele>
<time>2021-11-05T05:25:43.793Z</time>
</trkpt>
<trkpt lat="30.9912900" lon="34.9447700">
<ele>494.160004</ele>
<time>2021-11-05T05:25:43.793Z</time>
</trkpt>
<trkpt lat="30.9912700" lon="34.9445600">
<ele>495.250000</ele>
<time>2021-11-05T05:25:43.793Z</time>
</trkpt>
<trkpt lat="30.9912200" lon="34.9439000">
<ele>495.350006</ele>
<time>2021-11-05T05:25:43.793Z</time>
</trkpt>
<trkpt lat="30.9912400" lon="34.9434100">
<ele>497.920013</ele>
<time>2021-11-05T05:25:43.793Z</time>
</trkpt>
<trkpt lat="30.9912100" lon="34.9431900">
<ele>498.100006</ele>
<time>2021-11-05T05:25:43.793Z</time>
</trkpt>
<trkpt lat="30.9912100" lon="34.9430200">
<ele>497.719971</ele>
<time>2021-11-05T05:25:43.793Z</time>
</trkpt>
<trkpt lat="30.9912300" lon="34.9430200">
<ele>497.509979</ele>
<time>2021-11-05T05:25:43.793Z</time>
</trkpt>
<trkpt lat="30.9912100" lon="34.9430200">
<ele>497.719971</ele>
<time>2021-11-05T05:25:43.793Z</time>
</trkpt>
<trkpt lat="30.9912200" lon="34.9428900">
<ele>496.869995</ele>
<time>2021-11-05T05:25:43.793Z</time>
</trkpt>
<trkpt lat="30.9911700" lon="34.9423900">
<ele>493.390015</ele>
<time>2021-11-05T05:25:43.793Z</time>
</trkpt>
<trkpt lat="30.9911800" lon="34.9418000">
<ele>489.190002</ele>
<time>2021-11-05T05:25:43.793Z</time>
</trkpt>
<trkpt lat="30.9912100" lon="34.9416600">
<ele>487.589996</ele>
<time>2021-11-05T05:25:43.793Z</time>
</trkpt>
<trkpt lat="30.9912700" lon="34.9415300">
<ele>486.509979</ele>
<time>2021-11-05T05:25:43.793Z</time>
</trkpt>
<trkpt lat="30.9912900" lon="34.9414100">
<ele>485.770020</ele>
<time>2021-11-05T05:25:43.793Z</time>
</trkpt>
<trkpt lat="30.9912800" lon="34.9412000">
<ele>484.929993</ele>
<time>2021-11-05T05:25:43.793Z</time>
</trkpt>
<trkpt lat="30.9913200" lon="34.9408100">
<ele>486.809998</ele>
<time>2021-11-05T05:25:43.793Z</time>
</trkpt>
<trkpt lat="30.9914000" lon="34.9403500">
<ele>484.720001</ele>
<time>2021-11-05T05:25:43.793Z</time>
</trkpt>
<trkpt lat="30.9914200" lon="34.9401900">
<ele>483.360016</ele>
<time>2021-11-05T05:25:43.793Z</time>
</trkpt>
<trkpt lat="30.9914100" lon="34.9399500">
<ele>482.119995</ele>
<time>2021-11-05T05:25:43.793Z</time>
</trkpt>
<trkpt lat="30.9912800" lon="34.9394100">
<ele>482.540009</ele>
<time>2021-11-05T05:25:43.793Z</time>
</trkpt>
<trkpt lat="30.9913800" lon="34.9387800">
<ele>485.940002</ele>
<time>2021-11-05T05:25:43.793Z</time>
</trkpt>
<trkpt lat="30.9913800" lon="34.9386900">
<ele>485.940002</ele>
<time>2021-11-05T05:25:43.793Z</time>
</trkpt>
<trkpt lat="30.9913500" lon="34.9384400">
<ele>486.779999</ele>
<time>2021-11-05T05:25:43.793Z</time>
</trkpt>
<trkpt lat="30.9913500" lon="34.9375100">
<ele>498.679993</ele>
<time>2021-11-05T05:25:43.793Z</time>
</trkpt>
<trkpt lat="30.9913800" lon="34.9372300">
<ele>505.540009</ele>
<time>2021-11-05T05:25:43.793Z</time>
</trkpt>
<trkpt lat="30.9914300" lon="34.9370200">
<ele>506.490021</ele>
<time>2021-11-05T05:25:43.793Z</time>
</trkpt>
<trkpt lat="30.9915000" lon="34.9369000">
<ele>503.820007</ele>
<time>2021-11-05T05:25:43.793Z</time>
</trkpt>
<trkpt lat="30.9915200" lon="34.9368400">
<ele>501.170013</ele>
<time>2021-11-05T05:25:43.793Z</time>
</trkpt>
<trkpt lat="30.9915600" lon="34.9367400">
<ele>497.460022</ele>
<time>2021-11-05T05:25:43.793Z</time>
</trkpt>
<trkpt lat="30.9915600" lon="34.9364100">
<ele>491.500000</ele>
<time>2021-11-05T05:25:43.793Z</time>
</trkpt>
<trkpt lat="30.9916700" lon="34.9360600">
<ele>485.080017</ele>
<time>2021-11-05T05:25:43.793Z</time>
</trkpt>
<trkpt lat="30.9918800" lon="34.9357800">
<ele>481.089996</ele>
<time>2021-11-05T05:25:43.793Z</time>
</trkpt>
<trkpt lat="30.9921600" lon="34.9357100">
<ele>480.309998</ele>
<time>2021-11-05T05:25:43.793Z</time>
</trkpt>
<trkpt lat="30.9925500" lon="34.9355800">
<ele>479.679993</ele>
<time>2021-11-05T05:25:43.793Z</time>
</trkpt>
<trkpt lat="30.9928300" lon="34.9352600">
<ele>481.519989</ele>
<time>2021-11-05T05:25:43.793Z</time>
</trkpt>
<trkpt lat="30.9927800" lon="34.9348600">
<ele>480.029999</ele>
<time>2021-11-05T05:25:43.793Z</time>
</trkpt>
<trkpt lat="30.9928400" lon="34.9346600">
<ele>479.950012</ele>
<time>2021-11-05T05:25:43.793Z</time>
</trkpt>
<trkpt lat="30.9929600" lon="34.9345500">
<ele>479.669983</ele>
<time>2021-11-05T05:25:43.793Z</time>
</trkpt>
<trkpt lat="30.9930700" lon="34.9344100">
<ele>478.960022</ele>
<time>2021-11-05T05:25:43.793Z</time>
</trkpt>
<trkpt lat="30.9936400" lon="34.9335300">
<ele>476.100006</ele>
<time>2021-11-05T05:25:43.793Z</time>
</trkpt>
<trkpt lat="30.9936900" lon="34.9332100">
<ele>472.039978</ele>
<time>2021-11-05T05:25:43.793Z</time>
</trkpt>
<trkpt lat="30.9942100" lon="34.9327300">
<ele>480.720001</ele>
<time>2021-11-05T05:25:43.793Z</time>
</trkpt>
<trkpt lat="30.9944400" lon="34.9323400">
<ele>482.750000</ele>
<time>2021-11-05T05:25:43.793Z</time>
</trkpt>
<trkpt lat="30.9946200" lon="34.9319500">
<ele>480.680023</ele>
<time>2021-11-05T05:25:43.793Z</time>
</trkpt>
<trkpt lat="30.9947600" lon="34.9315200">
<ele>481.299988</ele>
<time>2021-11-05T05:25:43.793Z</time>
</trkpt>
<trkpt lat="30.9948400" lon="34.9310200">
<ele>479.510010</ele>
<time>2021-11-05T05:25:43.793Z</time>
</trkpt>
<trkpt lat="30.9948400" lon="34.9301500">
<ele>479.860016</ele>
<time>2021-11-05T05:25:43.793Z</time>
</trkpt>
<trkpt lat="30.9948700" lon="34.9295600">
<ele>479.399994</ele>
<time>2021-11-05T05:25:43.793Z</time>
</trkpt>
<trkpt lat="30.9948400" lon="34.9292600">
<ele>475.639984</ele>
<time>2021-11-05T05:25:43.793Z</time>
</trkpt>
<trkpt lat="30.9949000" lon="34.9285900">
<ele>471.130005</ele>
<time>2021-11-05T05:25:43.793Z</time>
</trkpt>
<trkpt lat="30.9951800" lon="34.9276100">
<ele>467.380005</ele>
<time>2021-11-05T05:25:43.793Z</time>
</trkpt>
<trkpt lat="30.9950700" lon="34.9273600">
<ele>465.740021</ele>
<time>2021-11-05T05:25:43.793Z</time>
</trkpt>
<trkpt lat="30.9949600" lon="34.9272600">
<ele>464.979980</ele>
<time>2021-11-05T05:25:43.793Z</time>
</trkpt>
<trkpt lat="30.9946900" lon="34.9271000">
<ele>462.290009</ele>
<time>2021-11-05T05:25:43.793Z</time>
</trkpt>
<trkpt lat="30.9944100" lon="34.9269500">
<ele>463.139984</ele>
<time>2021-11-05T05:25:43.793Z</time>
</trkpt>
<trkpt lat="30.9943400" lon="34.9267100">
<ele>463.059998</ele>
<time>2021-11-05T05:25:43.793Z</time>
</trkpt>
<trkpt lat="30.9941000" lon="34.9263500">
<ele>463.170013</ele>
<time>2021-11-05T05:25:43.793Z</time>
</trkpt>
<trkpt lat="30.9938400" lon="34.9259700">
<ele>466.619995</ele>
<time>2021-11-05T05:25:43.793Z</time>
</trkpt>
<trkpt lat="30.9937900" lon="34.9258300">
<ele>467.779999</ele>
<time>2021-11-05T05:25:43.793Z</time>
</trkpt>
<trkpt lat="30.9938100" lon="34.9257300">
<ele>467.419983</ele>
<time>2021-11-05T05:25:43.793Z</time>
</trkpt>
<trkpt lat="30.9938500" lon="34.9256700">
<ele>466.699982</ele>
<time>2021-11-05T05:25:43.793Z</time>
</trkpt>
<trkpt lat="30.9938700" lon="34.9256500">
<ele>466.339996</ele>
<time>2021-11-05T05:25:43.793Z</time>
</trkpt>
<trkpt lat="30.9939100" lon="34.9256300">
<ele>465.899994</ele>
<time>2021-11-05T05:25:43.793Z</time>
</trkpt>
<trkpt lat="30.9943400" lon="34.9254400">
<ele>466.299988</ele>
<time>2021-11-05T05:25:43.793Z</time>
</trkpt>
<trkpt lat="30.9945500" lon="34.9252900">
<ele>467.580017</ele>
<time>2021-11-05T05:25:43.793Z</time>
</trkpt>
<trkpt lat="30.9946400" lon="34.9251900">
<ele>467.169983</ele>
<time>2021-11-05T05:25:43.793Z</time>
</trkpt>
<trkpt lat="30.9950600" lon="34.9246100">
<ele>461.580017</ele>
<time>2021-11-05T05:25:43.793Z</time>
</trkpt>
<trkpt lat="30.9954700" lon="34.9239600">
<ele>467.280029</ele>
<time>2021-11-05T05:25:43.793Z</time>
</trkpt>
<trkpt lat="30.9957000" lon="34.9236800">
<ele>465.860016</ele>
<time>2021-11-05T05:25:43.793Z</time>
</trkpt>
<trkpt lat="30.9958400" lon="34.9236400">
<ele>465.160004</ele>
<time>2021-11-05T05:25:43.793Z</time>
</trkpt>
<trkpt lat="30.9959500" lon="34.9236300">
<ele>464.299988</ele>
<time>2021-11-05T05:25:43.793Z</time>
</trkpt>
<trkpt lat="30.9959700" lon="34.9234500">
<ele>463.149994</ele>
<time>2021-11-05T05:25:43.793Z</time>
</trkpt>
<trkpt lat="30.9959100" lon="34.9232500">
<ele>463.340027</ele>
<time>2021-11-05T05:25:43.793Z</time>
</trkpt>
<trkpt lat="30.9955000" lon="34.9201300">
<ele>467.459991</ele>
<time>2021-11-05T05:25:43.793Z</time>
</trkpt>
<trkpt lat="30.9939600" lon="34.9168900">
<ele>453.969971</ele>
<time>2021-11-05T05:25:43.793Z</time>
</trkpt>
<trkpt lat="30.9939700" lon="34.9165900">
<ele>449.110016</ele>
<time>2021-11-05T05:25:43.793Z</time>
</trkpt>
<trkpt lat="30.9936800" lon="34.9163900">
<ele>452.009979</ele>
<time>2021-11-05T05:25:43.793Z</time>
</trkpt>
<trkpt lat="30.9933400" lon="34.9148900">
<ele>457.569977</ele>
<time>2021-11-05T05:25:43.793Z</time>
</trkpt>
<trkpt lat="30.9933000" lon="34.9146700">
<ele>457.220032</ele>
<time>2021-11-05T05:25:43.793Z</time>
</trkpt>
<trkpt lat="30.9932000" lon="34.9142800">
<ele>457.200012</ele>
<time>2021-11-05T05:25:43.793Z</time>
</trkpt>
<trkpt lat="30.9932100" lon="34.9138100">
<ele>454.760010</ele>
<time>2021-11-05T05:25:43.793Z</time>
</trkpt>
<trkpt lat="30.9934900" lon="34.9136600">
<ele>455.029999</ele>
<time>2021-11-05T05:25:43.793Z</time>
</trkpt>
<trkpt lat="30.9936900" lon="34.9135900">
<ele>457.090027</ele>
<time>2021-11-05T05:25:43.793Z</time>
</trkpt>
<trkpt lat="30.9937700" lon="34.9135600">
<ele>458.079987</ele>
<time>2021-11-05T05:25:43.793Z</time>
</trkpt>
<trkpt lat="30.9940200" lon="34.9133600">
<ele>459.940002</ele>
<time>2021-11-05T05:25:43.793Z</time>
</trkpt>
<trkpt lat="30.9944100" lon="34.9129300">
<ele>459.160004</ele>
<time>2021-11-05T05:25:43.793Z</time>
</trkpt>
<trkpt lat="30.9947400" lon="34.9125200">
<ele>460.130005</ele>
<time>2021-11-05T05:25:43.793Z</time>
</trkpt>
<trkpt lat="30.9948800" lon="34.9123700">
<ele>460.569977</ele>
<time>2021-11-05T05:25:43.793Z</time>
</trkpt>
<trkpt lat="30.9950300" lon="34.9121700">
<ele>461.350006</ele>
<time>2021-11-05T05:25:43.793Z</time>
</trkpt>
<trkpt lat="30.9952100" lon="34.9119200">
<ele>462.889984</ele>
<time>2021-11-05T05:25:43.793Z</time>
</trkpt>
<trkpt lat="30.9953200" lon="34.9118200">
<ele>464.289978</ele>
<time>2021-11-05T05:25:43.793Z</time>
</trkpt>
<trkpt lat="30.9954400" lon="34.9117100">
<ele>467.110016</ele>
<time>2021-11-05T05:25:43.793Z</time>
</trkpt>
<trkpt lat="30.9958300" lon="34.9114000">
<ele>477.699982</ele>
<time>2021-11-05T05:25:43.793Z</time>
</trkpt>
<trkpt lat="30.9959200" lon="34.9112600">
<ele>477.829987</ele>
<time>2021-11-05T05:25:43.793Z</time>
</trkpt>
<trkpt lat="30.9960100" lon="34.9109700">
<ele>478.470001</ele>
<time>2021-11-05T05:25:43.793Z</time>
</trkpt>
<trkpt lat="30.9960300" lon="34.9107300">
<ele>478.769989</ele>
<time>2021-11-05T05:25:43.793Z</time>
</trkpt>
<trkpt lat="30.9960300" lon="34.9105400">
<ele>478.549988</ele>
<time>2021-11-05T05:25:43.793Z</time>
</trkpt>
<trkpt lat="30.9960100" lon="34.9103900">
<ele>478.289978</ele>
<time>2021-11-05T05:25:43.793Z</time>
</trkpt>
<trkpt lat="30.9958900" lon="34.9099000">
<ele>475.849976</ele>
<time>2021-11-05T05:25:43.793Z</time>
</trkpt>
<trkpt lat="30.9958700" lon="34.9096200">
<ele>476.059998</ele>
<time>2021-11-05T05:25:43.793Z</time>
</trkpt>
<trkpt lat="30.9959000" lon="34.9091000">
<ele>476.919983</ele>
<time>2021-11-05T05:25:43.793Z</time>
</trkpt>
<trkpt lat="30.9959100" lon="34.9090500">
<ele>476.709991</ele>
<time>2021-11-05T05:25:43.793Z</time>
</trkpt>
<trkpt lat="30.9959600" lon="34.9088500">
<ele>476.199982</ele>
<time>2021-11-05T05:25:43.793Z</time>
</trkpt>
<trkpt lat="30.9961000" lon="34.9086200">
<ele>477.829987</ele>
<time>2021-11-05T05:25:43.793Z</time>
</trkpt>
<trkpt lat="30.9968100" lon="34.9078400">
<ele>488.179993</ele>
<time>2021-11-05T05:25:43.793Z</time>
</trkpt>
<trkpt lat="30.9969900" lon="34.9076600">
<ele>490.410004</ele>
<time>2021-11-05T05:25:43.793Z</time>
</trkpt>
<trkpt lat="30.9973600" lon="34.9073400">
<ele>494.029999</ele>
<time>2021-11-05T05:25:43.793Z</time>
</trkpt>
<trkpt lat="30.9974200" lon="34.9072500">
<ele>494.450012</ele>
<time>2021-11-05T05:25:43.793Z</time>
</trkpt>
<trkpt lat="30.9974200" lon="34.9072500">
<ele>494.450012</ele>
<time>2021-11-05T05:25:43.793Z</time>
</trkpt>
<trkpt lat="30.9974200" lon="34.9072500">
<ele>494.450012</ele>
<time>2021-11-05T05:25:43.793Z</time>
</trkpt>
<trkpt lat="30.9974300" lon="34.9072300">
<ele>494.639984</ele>
<time>2021-11-05T05:25:43.793Z</time>
</trkpt>
<trkpt lat="30.9975400" lon="34.9069900">
<ele>495.299988</ele>
<time>2021-11-05T05:25:43.793Z</time>
</trkpt>
<trkpt lat="30.9977200" lon="34.9065500">
<ele>500.820007</ele>
<time>2021-11-05T05:25:43.793Z</time>
</trkpt>
<trkpt lat="30.9978700" lon="34.9062900">
<ele>502.450012</ele>
<time>2021-11-05T05:25:43.793Z</time>
</trkpt>
<trkpt lat="30.9980100" lon="34.9061200">
<ele>503.600006</ele>
<time>2021-11-05T05:25:43.793Z</time>
</trkpt>
<trkpt lat="30.9984500" lon="34.9056700">
<ele>506.500000</ele>
<time>2021-11-05T05:25:43.793Z</time>
</trkpt>
<trkpt lat="30.9986100" lon="34.9054300">
<ele>511.690002</ele>
<time>2021-11-05T05:25:43.793Z</time>
</trkpt>
<trkpt lat="30.9990200" lon="34.9046800">
<ele>521.820007</ele>
<time>2021-11-05T05:25:43.793Z</time>
</trkpt>
<trkpt lat="30.9996800" lon="34.9032600">
<ele>519.750000</ele>
<time>2021-11-05T05:25:43.793Z</time>
</trkpt>
<trkpt lat="31.0000500" lon="34.9027200">
<ele>521.250000</ele>
<time>2021-11-05T05:25:43.793Z</time>
</trkpt>
<trkpt lat="31.0001300" lon="34.9026200">
<ele>521.140015</ele>
<time>2021-11-05T05:25:43.793Z</time>
</trkpt>
<trkpt lat="31.0000800" lon="34.9024000">
<ele>521.070007</ele>
<time>2021-11-05T05:25:43.793Z</time>
</trkpt>
<trkpt lat="31.0000100" lon="34.9022600">
<ele>521.830017</ele>
<time>2021-11-05T05:25:43.793Z</time>
</trkpt>
<trkpt lat="30.9999700" lon="34.9019200">
<ele>527.200012</ele>
<time>2021-11-05T05:25:43.793Z</time>
</trkpt>
<trkpt lat="30.9998700" lon="34.9017200">
<ele>529.750000</ele>
<time>2021-11-05T05:25:43.793Z</time>
</trkpt>
<trkpt lat="30.9997900" lon="34.9014600">
<ele>531.270020</ele>
<time>2021-11-05T05:25:43.793Z</time>
</trkpt>
<trkpt lat="30.9997300" lon="34.9007500">
<ele>528.260010</ele>
<time>2021-11-05T05:25:43.793Z</time>
</trkpt>
<trkpt lat="30.9996800" lon="34.9005300">
<ele>529.460022</ele>
<time>2021-11-05T05:25:43.793Z</time>
</trkpt>
<trkpt lat="30.9995100" lon="34.9000400">
<ele>529.580017</ele>
<time>2021-11-05T05:25:43.793Z</time>
</trkpt>
<trkpt lat="30.9994600" lon="34.8996800">
<ele>526.979980</ele>
<time>2021-11-05T05:25:43.793Z</time>
</trkpt>
<trkpt lat="30.9995000" lon="34.8992700">
<ele>528.280029</ele>
<time>2021-11-05T05:25:43.793Z</time>
</trkpt>
<trkpt lat="30.9995800" lon="34.8988200">
<ele>526.950012</ele>
<time>2021-11-05T05:25:43.793Z</time>
</trkpt>
<trkpt lat="30.9996700" lon="34.8984200">
<ele>523.010010</ele>
<time>2021-11-05T05:25:43.793Z</time>
</trkpt>
<trkpt lat="30.9997900" lon="34.8979900">
<ele>521.539978</ele>
<time>2021-11-05T05:25:43.793Z</time>
</trkpt>
<trkpt lat="30.9999000" lon="34.8971100">
<ele>528.200012</ele>
<time>2021-11-05T05:25:43.793Z</time>
</trkpt>
<trkpt lat="31.0000500" lon="34.8962500">
<ele>526.500000</ele>
<time>2021-11-05T05:25:43.793Z</time>
</trkpt>
<trkpt lat="31.0000600" lon="34.8960500">
<ele>526.690002</ele>
<time>2021-11-05T05:25:43.793Z</time>
</trkpt>
<trkpt lat="31.0000300" lon="34.8956500">
<ele>526.820007</ele>
<time>2021-11-05T05:25:43.793Z</time>
</trkpt>
<trkpt lat="31.0000300" lon="34.8950800">
<ele>527.700012</ele>
<time>2021-11-05T05:25:43.793Z</time>
</trkpt>
<trkpt lat="30.9999900" lon="34.8947500">
<ele>527.799988</ele>
<time>2021-11-05T05:25:43.793Z</time>
</trkpt>
<trkpt lat="30.9999600" lon="34.8946300">
<ele>527.570007</ele>
<time>2021-11-05T05:25:43.793Z</time>
</trkpt>
<trkpt lat="30.9999100" lon="34.8945500">
<ele>527.030029</ele>
<time>2021-11-05T05:25:43.793Z</time>
</trkpt>
<trkpt lat="30.9997800" lon="34.8943600">
<ele>526.409973</ele>
<time>2021-11-05T05:25:43.793Z</time>
</trkpt>
<trkpt lat="30.9996300" lon="34.8941900">
<ele>528.410034</ele>
<time>2021-11-05T05:25:43.793Z</time>
</trkpt>
<trkpt lat="30.9992700" lon="34.8939300">
<ele>534.750000</ele>
<time>2021-11-05T05:25:43.793Z</time>
</trkpt>
<trkpt lat="30.9988800" lon="34.8933600">
<ele>528.979980</ele>
<time>2021-11-05T05:25:43.793Z</time>
</trkpt>
<trkpt lat="30.9987500" lon="34.8930700">
<ele>524.630005</ele>
<time>2021-11-05T05:25:43.793Z</time>
</trkpt>
<trkpt lat="30.9985900" lon="34.8924500">
<ele>519.229980</ele>
<time>2021-11-05T05:25:43.793Z</time>
</trkpt>
<trkpt lat="30.9985300" lon="34.8923500">
<ele>517.859985</ele>
<time>2021-11-05T05:25:43.793Z</time>
</trkpt>
<trkpt lat="30.9984100" lon="34.8922600">
<ele>517.070007</ele>
<time>2021-11-05T05:25:43.793Z</time>
</trkpt>
<trkpt lat="30.9983500" lon="34.8922300">
<ele>517.000000</ele>
<time>2021-11-05T05:25:43.793Z</time>
</trkpt>
<trkpt lat="30.9979600" lon="34.8922700">
<ele>513.470032</ele>
<time>2021-11-05T05:25:43.793Z</time>
</trkpt>
<trkpt lat="30.9978900" lon="34.8922900">
<ele>511.429993</ele>
<time>2021-11-05T05:25:43.793Z</time>
</trkpt>
<trkpt lat="30.9977300" lon="34.8923800">
<ele>507.750000</ele>
<time>2021-11-05T05:25:43.793Z</time>
</trkpt>
<trkpt lat="30.9976400" lon="34.8924700">
<ele>507.449982</ele>
<time>2021-11-05T05:25:43.793Z</time>
</trkpt>
<trkpt lat="30.9973400" lon="34.8929900">
<ele>504.170013</ele>
<time>2021-11-05T05:25:43.793Z</time>
</trkpt>
<trkpt lat="30.9972200" lon="34.8930500">
<ele>502.980011</ele>
<time>2021-11-05T05:25:43.793Z</time>
</trkpt>
<trkpt lat="30.9971100" lon="34.8930300">
<ele>502.269989</ele>
<time>2021-11-05T05:25:43.793Z</time>
</trkpt>
<trkpt lat="30.9971300" lon="34.8929100">
<ele>502.680023</ele>
<time>2021-11-05T05:25:43.793Z</time>
</trkpt>
<trkpt lat="30.9971700" lon="34.8925900">
<ele>504.610016</ele>
<time>2021-11-05T05:25:43.793Z</time>
</trkpt>
<trkpt lat="30.9972100" lon="34.8925400">
<ele>504.789978</ele>
<time>2021-11-05T05:25:43.793Z</time>
</trkpt>
<trkpt lat="30.9973400" lon="34.8924200">
<ele>506.390015</ele>
<time>2021-11-05T05:25:43.793Z</time>
</trkpt>
<trkpt lat="30.9974100" lon="34.8923200">
<ele>506.750031</ele>
<time>2021-11-05T05:25:43.793Z</time>
</trkpt>
<trkpt lat="30.9974600" lon="34.8922000">
<ele>506.669983</ele>
<time>2021-11-05T05:25:43.793Z</time>
</trkpt>
<trkpt lat="30.9974800" lon="34.8920400">
<ele>508.179993</ele>
<time>2021-11-05T05:25:43.793Z</time>
</trkpt>
<trkpt lat="30.9973700" lon="34.8917000">
<ele>513.460022</ele>
<time>2021-11-05T05:25:43.793Z</time>
</trkpt>
<trkpt lat="30.9975500" lon="34.8912900">
<ele>512.989990</ele>
<time>2021-11-05T05:25:43.793Z</time>
</trkpt>
<trkpt lat="30.9975700" lon="34.8912100">
<ele>513.280029</ele>
<time>2021-11-05T05:25:43.793Z</time>
</trkpt>
<trkpt lat="30.9975700" lon="34.8911000">
<ele>514.000000</ele>
<time>2021-11-05T05:25:43.793Z</time>
</trkpt>
<trkpt lat="30.9975400" lon="34.8909800">
<ele>514.289978</ele>
<time>2021-11-05T05:25:43.793Z</time>
</trkpt>
<trkpt lat="30.9974600" lon="34.8908300">
<ele>514.299988</ele>
<time>2021-11-05T05:25:43.793Z</time>
</trkpt>
<trkpt lat="30.9972300" lon="34.8906400">
<ele>516.640015</ele>
<time>2021-11-05T05:25:43.793Z</time>
</trkpt>
<trkpt lat="30.9970900" lon="34.8904500">
<ele>516.890015</ele>
<time>2021-11-05T05:25:43.793Z</time>
</trkpt>
<trkpt lat="30.9970400" lon="34.8903600">
<ele>517.270020</ele>
<time>2021-11-05T05:25:43.793Z</time>
</trkpt>
<trkpt lat="30.9969600" lon="34.8901300">
<ele>517.880005</ele>
<time>2021-11-05T05:25:43.793Z</time>
</trkpt>
<trkpt lat="30.9968400" lon="34.8899700">
<ele>516.559998</ele>
<time>2021-11-05T05:25:43.793Z</time>
</trkpt>
<trkpt lat="30.9967900" lon="34.8899300">
<ele>515.739990</ele>
<time>2021-11-05T05:25:43.793Z</time>
</trkpt>
<trkpt lat="30.9967100" lon="34.8899000">
<ele>514.940002</ele>
<time>2021-11-05T05:25:43.793Z</time>
</trkpt>
<trkpt lat="30.9966000" lon="34.8899000">
<ele>513.549988</ele>
<time>2021-11-05T05:25:43.793Z</time>
</trkpt>
<trkpt lat="30.9962100" lon="34.8899700">
<ele>505.389984</ele>
<time>2021-11-05T05:25:43.793Z</time>
</trkpt>
<trkpt lat="30.9956500" lon="34.8901400">
<ele>497.190002</ele>
<time>2021-11-05T05:25:43.793Z</time>
</trkpt>
<trkpt lat="30.9955700" lon="34.8901600">
<ele>496.179993</ele>
<time>2021-11-05T05:25:43.793Z</time>
</trkpt>
<trkpt lat="30.9951200" lon="34.8902500">
<ele>496.190002</ele>
<time>2021-11-05T05:25:43.793Z</time>
</trkpt>
<trkpt lat="30.9947700" lon="34.8904800">
<ele>497.450012</ele>
<time>2021-11-05T05:25:43.793Z</time>
</trkpt>
<trkpt lat="30.9942400" lon="34.8906300">
<ele>495.529999</ele>
<time>2021-11-05T05:25:43.793Z</time>
</trkpt>
<trkpt lat="30.9938900" lon="34.8906200">
<ele>494.309998</ele>
<time>2021-11-05T05:25:43.793Z</time>
</trkpt>
<trkpt lat="30.9937000" lon="34.8905500">
<ele>495.010010</ele>
<time>2021-11-05T05:25:43.793Z</time>
</trkpt>
<trkpt lat="30.9936300" lon="34.8905400">
<ele>495.000000</ele>
<time>2021-11-05T05:25:43.793Z</time>
</trkpt>
<trkpt lat="30.9931600" lon="34.8906700">
<ele>481.169983</ele>
<time>2021-11-05T05:25:43.793Z</time>
</trkpt>
<trkpt lat="30.9928100" lon="34.8907300">
<ele>473.369995</ele>
<time>2021-11-05T05:25:43.793Z</time>
</trkpt>
<trkpt lat="30.9920200" lon="34.8909700">
<ele>461.360016</ele>
<time>2021-11-05T05:25:43.793Z</time>
</trkpt>
<trkpt lat="30.9913800" lon="34.8912300">
<ele>461.119995</ele>
<time>2021-11-05T05:25:43.793Z</time>
</trkpt>
<trkpt lat="30.9913100" lon="34.8912800">
<ele>460.399994</ele>
<time>2021-11-05T05:25:43.793Z</time>
</trkpt>
<trkpt lat="30.9912200" lon="34.8913700">
<ele>459.759979</ele>
<time>2021-11-05T05:25:43.793Z</time>
</trkpt>
<trkpt lat="30.9910500" lon="34.8916500">
<ele>458.500000</ele>
<time>2021-11-05T05:25:43.793Z</time>
</trkpt>
<trkpt lat="30.9910000" lon="34.8916700">
<ele>458.179993</ele>
<time>2021-11-05T05:25:43.793Z</time>
</trkpt>
<trkpt lat="30.9909300" lon="34.8916900">
<ele>457.500000</ele>
<time>2021-11-05T05:25:43.793Z</time>
</trkpt>
<trkpt lat="30.9907000" lon="34.8916800">
<ele>455.989990</ele>
<time>2021-11-05T05:25:43.793Z</time>
</trkpt>
<trkpt lat="30.9905200" lon="34.8916200">
<ele>454.149994</ele>
<time>2021-11-05T05:25:43.793Z</time>
</trkpt>
<trkpt lat="30.9902700" lon="34.8915400">
<ele>450.000000</ele>
<time>2021-11-05T05:25:43.793Z</time>
</trkpt>
<trkpt lat="30.9902000" lon="34.8912400">
<ele>445.870026</ele>
<time>2021-11-05T05:25:43.793Z</time>
</trkpt>
<trkpt lat="30.9901900" lon="34.8911600">
<ele>444.500000</ele>
<time>2021-11-05T05:25:43.793Z</time>
</trkpt>
<trkpt lat="30.9901100" lon="34.8911600">
<ele>443.390015</ele>
<time>2021-11-05T05:25:43.793Z</time>
</trkpt>
<trkpt lat="30.9900400" lon="34.8911800">
<ele>442.779999</ele>
<time>2021-11-05T05:25:43.793Z</time>
</trkpt>
<trkpt lat="30.9899400" lon="34.8911900">
<ele>442.759979</ele>
<time>2021-11-05T05:25:43.793Z</time>
</trkpt>
<trkpt lat="30.9898700" lon="34.8910600">
<ele>441.550018</ele>
<time>2021-11-05T05:25:43.793Z</time>
</trkpt>
<trkpt lat="30.9898400" lon="34.8908900">
<ele>439.450012</ele>
<time>2021-11-05T05:25:43.793Z</time>
</trkpt>
<trkpt lat="30.9898600" lon="34.8905000">
<ele>438.440002</ele>
<time>2021-11-05T05:25:43.793Z</time>
</trkpt>
<trkpt lat="30.9898300" lon="34.8901400">
<ele>440.109985</ele>
<time>2021-11-05T05:25:43.793Z</time>
</trkpt>
<trkpt lat="30.9895200" lon="34.8895100">
<ele>451.619995</ele>
<time>2021-11-05T05:25:43.793Z</time>
</trkpt>
<trkpt lat="30.9892200" lon="34.8892100">
<ele>469.220001</ele>
<time>2021-11-05T05:25:43.793Z</time>
</trkpt>
<trkpt lat="30.9891500" lon="34.8890500">
<ele>474.070007</ele>
<time>2021-11-05T05:25:43.793Z</time>
</trkpt>
<trkpt lat="30.9891500" lon="34.8889400">
<ele>475.110016</ele>
<time>2021-11-05T05:25:43.793Z</time>
</trkpt>
<trkpt lat="30.9889700" lon="34.8882600">
<ele>484.929993</ele>
<time>2021-11-05T05:25:43.793Z</time>
</trkpt>
<trkpt lat="30.9887600" lon="34.8880100">
<ele>492.549988</ele>
<time>2021-11-05T05:25:43.793Z</time>
</trkpt>
<trkpt lat="30.9884700" lon="34.8878300">
<ele>499.589996</ele>
<time>2021-11-05T05:25:43.793Z</time>
</trkpt>
<trkpt lat="30.9880000" lon="34.8871400">
<ele>516.640015</ele>
<time>2021-11-05T05:25:43.793Z</time>
</trkpt>
<trkpt lat="30.9875500" lon="34.8866900">
<ele>532.020020</ele>
<time>2021-11-05T05:25:43.793Z</time>
</trkpt>
<trkpt lat="30.9873400" lon="34.8865600">
<ele>536.030029</ele>
<time>2021-11-05T05:25:43.793Z</time>
</trkpt>
<trkpt lat="30.9870500" lon="34.8864900">
<ele>541.250000</ele>
<time>2021-11-05T05:25:43.793Z</time>
</trkpt>
<trkpt lat="30.9869400" lon="34.8863400">
<ele>546.050049</ele>
<time>2021-11-05T05:25:43.793Z</time>
</trkpt>
<trkpt lat="30.9867100" lon="34.8861900">
<ele>551.919983</ele>
<time>2021-11-05T05:25:43.793Z</time>
</trkpt>
<trkpt lat="30.9865400" lon="34.8861800">
<ele>553.380005</ele>
<time>2021-11-05T05:25:43.793Z</time>
</trkpt>
<trkpt lat="30.9865000" lon="34.8861600">
<ele>553.869995</ele>
<time>2021-11-05T05:25:43.793Z</time>
</trkpt>
<trkpt lat="30.9865000" lon="34.8861500">
<ele>554.099976</ele>
<time>2021-11-05T05:25:43.793Z</time>
</trkpt>
<trkpt lat="30.9860300" lon="34.8859100">
<ele>553.309998</ele>
<time>2021-11-05T05:25:43.793Z</time>
</trkpt>
<trkpt lat="30.9856500" lon="34.8854000">
<ele>549.609985</ele>
<time>2021-11-05T05:25:43.793Z</time>
</trkpt>
<trkpt lat="30.9849100" lon="34.8848300">
<ele>542.029968</ele>
<time>2021-11-05T05:25:43.793Z</time>
</trkpt>
<trkpt lat="30.9844200" lon="34.8846900">
<ele>542.119995</ele>
<time>2021-11-05T05:25:43.793Z</time>
</trkpt>
<trkpt lat="30.9839300" lon="34.8845500">
<ele>541.869995</ele>
<time>2021-11-05T05:25:43.793Z</time>
</trkpt>
<trkpt lat="30.9834300" lon="34.8844000">
<ele>530.369995</ele>
<time>2021-11-05T05:25:43.793Z</time>
</trkpt>
<trkpt lat="30.9829400" lon="34.8842600">
<ele>531.539978</ele>
<time>2021-11-05T05:25:43.793Z</time>
</trkpt>
<trkpt lat="30.9824500" lon="34.8841200">
<ele>546.359985</ele>
<time>2021-11-05T05:25:43.793Z</time>
</trkpt>
<trkpt lat="30.9817300" lon="34.8835200">
<ele>566.950012</ele>
<time>2021-11-05T05:25:43.793Z</time>
</trkpt>
<trkpt lat="30.9815700" lon="34.8834900">
<ele>568.480042</ele>
<time>2021-11-05T05:25:43.793Z</time>
</trkpt>
<trkpt lat="30.9813800" lon="34.8831800">
<ele>572.799988</ele>
<time>2021-11-05T05:25:43.793Z</time>
</trkpt>
<trkpt lat="30.9812400" lon="34.8831600">
<ele>575.349976</ele>
<time>2021-11-05T05:25:43.793Z</time>
</trkpt>
<trkpt lat="30.9808800" lon="34.8829900">
<ele>577.290039</ele>
<time>2021-11-05T05:25:43.793Z</time>
</trkpt>
<trkpt lat="30.9801500" lon="34.8827100">
<ele>574.989990</ele>
<time>2021-11-05T05:25:43.793Z</time>
</trkpt>
<trkpt lat="30.9796700" lon="34.8825600">
<ele>577.940002</ele>
<time>2021-11-05T05:25:43.793Z</time>
</trkpt>
<trkpt lat="30.9795000" lon="34.8825700">
<ele>579.099976</ele>
<time>2021-11-05T05:25:43.793Z</time>
</trkpt>
<trkpt lat="30.9792900" lon="34.8823700">
<ele>582.900024</ele>
<time>2021-11-05T05:25:43.793Z</time>
</trkpt>
<trkpt lat="30.9791500" lon="34.8823700">
<ele>584.780029</ele>
<time>2021-11-05T05:25:43.793Z</time>
</trkpt>
<trkpt lat="30.9789000" lon="34.8822200">
<ele>586.859985</ele>
<time>2021-11-05T05:25:43.793Z</time>
</trkpt>
<trkpt lat="30.9783400" lon="34.8821100">
<ele>589.609985</ele>
<time>2021-11-05T05:25:43.793Z</time>
</trkpt>
<trkpt lat="30.9778600" lon="34.8819000">
<ele>589.960022</ele>
<time>2021-11-05T05:25:43.793Z</time>
</trkpt>
<trkpt lat="30.9773700" lon="34.8816800">
<ele>591.529968</ele>
<time>2021-11-05T05:25:43.793Z</time>
</trkpt>
<trkpt lat="30.9769800" lon="34.8813600">
<ele>592.369995</ele>
<time>2021-11-05T05:25:43.793Z</time>
</trkpt>
<trkpt lat="30.9765600" lon="34.8812300">
<ele>587.809998</ele>
<time>2021-11-05T05:25:43.793Z</time>
</trkpt>
<trkpt lat="30.9763500" lon="34.8807000">
<ele>594.219971</ele>
<time>2021-11-05T05:25:43.793Z</time>
</trkpt>
<trkpt lat="30.9761400" lon="34.8801600">
<ele>593.559998</ele>
<time>2021-11-05T05:25:43.793Z</time>
</trkpt>
<trkpt lat="30.9760200" lon="34.8796400">
<ele>597.349976</ele>
<time>2021-11-05T05:25:43.793Z</time>
</trkpt>
<trkpt lat="30.9758900" lon="34.8791300">
<ele>607.059998</ele>
<time>2021-11-05T05:25:43.793Z</time>
</trkpt>
<trkpt lat="30.9757700" lon="34.8786100">
<ele>612.690002</ele>
<time>2021-11-05T05:25:43.793Z</time>
</trkpt>
<trkpt lat="30.9756700" lon="34.8784700">
<ele>614.179993</ele>
<time>2021-11-05T05:25:43.793Z</time>
</trkpt>
<trkpt lat="30.9756600" lon="34.8784800">
<ele>614.229980</ele>
<time>2021-11-05T05:25:43.793Z</time>
</trkpt>
<trkpt lat="30.9753800" lon="34.8781100">
<ele>616.599976</ele>
<time>2021-11-05T05:25:43.793Z</time>
</trkpt>
<trkpt lat="30.9751400" lon="34.8775600">
<ele>614.809998</ele>
<time>2021-11-05T05:25:43.793Z</time>
</trkpt>
<trkpt lat="30.9750400" lon="34.8770900">
<ele>612.760010</ele>
<time>2021-11-05T05:25:43.793Z</time>
</trkpt>
<trkpt lat="30.9749900" lon="34.8766000">
<ele>615.270020</ele>
<time>2021-11-05T05:25:43.793Z</time>
</trkpt>
<trkpt lat="30.9749600" lon="34.8763300">
<ele>615.019958</ele>
<time>2021-11-05T05:25:43.793Z</time>
</trkpt>
<trkpt lat="30.9747000" lon="34.8756700">
<ele>612.969971</ele>
<time>2021-11-05T05:25:43.793Z</time>
</trkpt>
<trkpt lat="30.9744500" lon="34.8755800">
<ele>611.380005</ele>
<time>2021-11-05T05:25:43.793Z</time>
</trkpt>
<trkpt lat="30.9737200" lon="34.8756300">
<ele>603.650024</ele>
<time>2021-11-05T05:25:43.793Z</time>
</trkpt>
<trkpt lat="30.9734800" lon="34.8757200">
<ele>606.830017</ele>
<time>2021-11-05T05:25:43.793Z</time>
</trkpt>
<trkpt lat="30.9734700" lon="34.8757200">
<ele>607.020020</ele>
<time>2021-11-05T05:25:43.793Z</time>
</trkpt>
<trkpt lat="30.9734700" lon="34.8757200">
<ele>607.020020</ele>
<time>2021-11-05T05:25:43.793Z</time>
</trkpt>
<trkpt lat="30.9728200" lon="34.8756400">
<ele>610.850037</ele>
<time>2021-11-05T05:25:43.793Z</time>
</trkpt>
<trkpt lat="30.9719800" lon="34.8760900">
<ele>611.500000</ele>
<time>2021-11-05T05:25:43.793Z</time>
</trkpt>
<trkpt lat="30.9718600" lon="34.8761200">
<ele>614.549988</ele>
<time>2021-11-05T05:25:43.793Z</time>
</trkpt>
<trkpt lat="30.9718700" lon="34.8762200">
<ele>615.529968</ele>
<time>2021-11-05T05:25:43.793Z</time>
</trkpt>
<trkpt lat="30.9718400" lon="34.8762900">
<ele>617.419983</ele>
<time>2021-11-05T05:25:43.793Z</time>
</trkpt>
<trkpt lat="30.9718400" lon="34.8764100">
<ele>619.219971</ele>
<time>2021-11-05T05:25:43.793Z</time>
</trkpt>
<trkpt lat="30.9718400" lon="34.8765300">
<ele>621.809998</ele>
<time>2021-11-05T05:25:43.793Z</time>
</trkpt>
<trkpt lat="30.9717800" lon="34.8767800">
<ele>628.239990</ele>
<time>2021-11-05T05:25:43.793Z</time>
</trkpt>
<trkpt lat="30.9717400" lon="34.8769800">
<ele>631.120056</ele>
<time>2021-11-05T05:25:43.793Z</time>
</trkpt>
<trkpt lat="30.9717500" lon="34.8772000">
<ele>630.619934</ele>
<time>2021-11-05T05:25:43.793Z</time>
</trkpt>
<trkpt lat="30.9717800" lon="34.8773500">
<ele>626.519958</ele>
<time>2021-11-05T05:25:43.793Z</time>
</trkpt>
<trkpt lat="30.9720000" lon="34.8775400">
<ele>612.500000</ele>
<time>2021-11-05T05:25:43.793Z</time>
</trkpt>
<trkpt lat="30.9720700" lon="34.8777200">
<ele>600.150024</ele>
<time>2021-11-05T05:25:43.793Z</time>
</trkpt>
<trkpt lat="30.9721700" lon="34.8778500">
<ele>591.510010</ele>
<time>2021-11-05T05:25:43.793Z</time>
</trkpt>
<trkpt lat="30.9724100" lon="34.8781200">
<ele>582.099976</ele>
<time>2021-11-05T05:25:43.793Z</time>
</trkpt>
<trkpt lat="30.9727300" lon="34.8784900">
<ele>569.559998</ele>
<time>2021-11-05T05:25:43.793Z</time>
</trkpt>
<trkpt lat="30.9728500" lon="34.8787000">
<ele>564.450012</ele>
<time>2021-11-05T05:25:43.793Z</time>
</trkpt>
<trkpt lat="30.9728400" lon="34.8788000">
<ele>563.289978</ele>
<time>2021-11-05T05:25:43.793Z</time>
</trkpt>
<trkpt lat="30.9727400" lon="34.8791300">
<ele>558.359985</ele>
<time>2021-11-05T05:25:43.793Z</time>
</trkpt>
<trkpt lat="30.9727400" lon="34.8792900">
<ele>556.669983</ele>
<time>2021-11-05T05:25:43.793Z</time>
</trkpt>
<trkpt lat="30.9728600" lon="34.8797100">
<ele>557.380005</ele>
<time>2021-11-05T05:25:43.793Z</time>
</trkpt>
<trkpt lat="30.9729200" lon="34.8799400">
<ele>558.729980</ele>
<time>2021-11-05T05:25:43.793Z</time>
</trkpt>
<trkpt lat="30.9729200" lon="34.8800200">
<ele>558.339966</ele>
<time>2021-11-05T05:25:43.793Z</time>
</trkpt>
<trkpt lat="30.9728800" lon="34.8801200">
<ele>555.320007</ele>
<time>2021-11-05T05:25:43.793Z</time>
</trkpt>
<trkpt lat="30.9727000" lon="34.8803900">
<ele>548.479980</ele>
<time>2021-11-05T05:25:43.793Z</time>
</trkpt>
<trkpt lat="30.9726700" lon="34.8805200">
<ele>546.770020</ele>
<time>2021-11-05T05:25:43.793Z</time>
</trkpt>
<trkpt lat="30.9726700" lon="34.8806000">
<ele>545.719971</ele>
<time>2021-11-05T05:25:43.793Z</time>
</trkpt>
<trkpt lat="30.9727200" lon="34.8807400">
<ele>543.200012</ele>
<time>2021-11-05T05:25:43.793Z</time>
</trkpt>
<trkpt lat="30.9729900" lon="34.8811200">
<ele>536.119995</ele>
<time>2021-11-05T05:25:43.793Z</time>
</trkpt>
<trkpt lat="30.9731300" lon="34.8814400">
<ele>534.380005</ele>
<time>2021-11-05T05:25:43.793Z</time>
</trkpt>
<trkpt lat="30.9732500" lon="34.8819900">
<ele>534.260010</ele>
<time>2021-11-05T05:25:43.793Z</time>
</trkpt>
<trkpt lat="30.9733600" lon="34.8823200">
<ele>529.780029</ele>
<time>2021-11-05T05:25:43.793Z</time>
</trkpt>
<trkpt lat="30.9733800" lon="34.8823900">
<ele>528.890015</ele>
<time>2021-11-05T05:25:43.793Z</time>
</trkpt>
<trkpt lat="30.9734000" lon="34.8825000">
<ele>527.200012</ele>
<time>2021-11-05T05:25:43.793Z</time>
</trkpt>
<trkpt lat="30.9734200" lon="34.8827600">
<ele>522.299988</ele>
<time>2021-11-05T05:25:43.793Z</time>
</trkpt>
<trkpt lat="30.9734800" lon="34.8829800">
<ele>520.059998</ele>
<time>2021-11-05T05:25:43.793Z</time>
</trkpt>
<trkpt lat="30.9735000" lon="34.8832500">
<ele>519.820007</ele>
<time>2021-11-05T05:25:43.793Z</time>
</trkpt>
<trkpt lat="30.9734900" lon="34.8833200">
<ele>519.789978</ele>
<time>2021-11-05T05:25:43.793Z</time>
</trkpt>
<trkpt lat="30.9733000" lon="34.8836000">
<ele>518.799988</ele>
<time>2021-11-05T05:25:43.793Z</time>
</trkpt>
<trkpt lat="30.9732800" lon="34.8836700">
<ele>519.809998</ele>
<time>2021-11-05T05:25:43.793Z</time>
</trkpt>
<trkpt lat="30.9732800" lon="34.8838500">
<ele>521.229980</ele>
<time>2021-11-05T05:25:43.793Z</time>
</trkpt>
<trkpt lat="30.9733000" lon="34.8840700">
<ele>521.770020</ele>
<time>2021-11-05T05:25:43.793Z</time>
</trkpt>
<trkpt lat="30.9733300" lon="34.8842000">
<ele>521.239990</ele>
<time>2021-11-05T05:25:43.793Z</time>
</trkpt>
<trkpt lat="30.9734000" lon="34.8843200">
<ele>521.049988</ele>
<time>2021-11-05T05:25:43.793Z</time>
</trkpt>
<trkpt lat="30.9735300" lon="34.8845000">
<ele>519.729980</ele>
<time>2021-11-05T05:25:43.793Z</time>
</trkpt>
<trkpt lat="30.9736100" lon="34.8847000">
<ele>518.099976</ele>
<time>2021-11-05T05:25:43.793Z</time>
</trkpt>
<trkpt lat="30.9736200" lon="34.8848400">
<ele>516.460022</ele>
<time>2021-11-05T05:25:43.793Z</time>
</trkpt>
<trkpt lat="30.9736100" lon="34.8849600">
<ele>514.580017</ele>
<time>2021-11-05T05:25:43.793Z</time>
</trkpt>
<trkpt lat="30.9735000" lon="34.8853500">
<ele>512.029968</ele>
<time>2021-11-05T05:25:43.793Z</time>
</trkpt>
<trkpt lat="30.9734800" lon="34.8854800">
<ele>511.030029</ele>
<time>2021-11-05T05:25:43.793Z</time>
</trkpt>
<trkpt lat="30.9735000" lon="34.8856100">
<ele>509.459991</ele>
<time>2021-11-05T05:25:43.793Z</time>
</trkpt>
<trkpt lat="30.9736300" lon="34.8859800">
<ele>500.800018</ele>
<time>2021-11-05T05:25:43.793Z</time>
</trkpt>
<trkpt lat="30.9736500" lon="34.8862200">
<ele>496.970001</ele>
<time>2021-11-05T05:25:43.793Z</time>
</trkpt>
<trkpt lat="30.9737100" lon="34.8864600">
<ele>495.860016</ele>
<time>2021-11-05T05:25:43.793Z</time>
</trkpt>
<trkpt lat="30.9737500" lon="34.8867600">
<ele>498.839996</ele>
<time>2021-11-05T05:25:43.793Z</time>
</trkpt>
<trkpt lat="30.9737800" lon="34.8868800">
<ele>499.239990</ele>
<time>2021-11-05T05:25:43.793Z</time>
</trkpt>
<trkpt lat="30.9739500" lon="34.8871800">
<ele>499.640015</ele>
<time>2021-11-05T05:25:43.793Z</time>
</trkpt>
<trkpt lat="30.9740100" lon="34.8873100">
<ele>500.039978</ele>
<time>2021-11-05T05:25:43.793Z</time>
</trkpt>
<trkpt lat="30.9740600" lon="34.8876400">
<ele>499.380005</ele>
<time>2021-11-05T05:25:43.793Z</time>
</trkpt>
<trkpt lat="30.9742600" lon="34.8881900">
<ele>489.130005</ele>
<time>2021-11-05T05:25:43.793Z</time>
</trkpt>
<trkpt lat="30.9743000" lon="34.8884300">
<ele>481.989990</ele>
<time>2021-11-05T05:25:43.793Z</time>
</trkpt>
<trkpt lat="30.9743800" lon="34.8887300">
<ele>476.199982</ele>
<time>2021-11-05T05:25:43.793Z</time>
</trkpt>
<trkpt lat="30.9744400" lon="34.8889100">
<ele>474.940002</ele>
<time>2021-11-05T05:25:43.793Z</time>
</trkpt>
<trkpt lat="30.9745000" lon="34.8890400">
<ele>475.070007</ele>
<time>2021-11-05T05:25:43.793Z</time>
</trkpt>
<trkpt lat="30.9745600" lon="34.8890900">
<ele>475.710022</ele>
<time>2021-11-05T05:25:43.793Z</time>
</trkpt>
<trkpt lat="30.9749300" lon="34.8893100">
<ele>477.739990</ele>
<time>2021-11-05T05:25:43.793Z</time>
</trkpt>
<trkpt lat="30.9752900" lon="34.8894700">
<ele>476.829987</ele>
<time>2021-11-05T05:25:43.793Z</time>
</trkpt>
<trkpt lat="30.9758200" lon="34.8896000">
<ele>476.559998</ele>
<time>2021-11-05T05:25:43.793Z</time>
</trkpt>
<trkpt lat="30.9759200" lon="34.8896400">
<ele>475.339996</ele>
<time>2021-11-05T05:25:43.793Z</time>
</trkpt>
<trkpt lat="30.9761300" lon="34.8897600">
<ele>472.389984</ele>
<time>2021-11-05T05:25:43.793Z</time>
</trkpt>
<trkpt lat="30.9763700" lon="34.8899300">
<ele>473.970001</ele>
<time>2021-11-05T05:25:43.793Z</time>
</trkpt>
<trkpt lat="30.9764900" lon="34.8899900">
<ele>474.739990</ele>
<time>2021-11-05T05:25:43.793Z</time>
</trkpt>
<trkpt lat="30.9766000" lon="34.8900900">
<ele>474.130005</ele>
<time>2021-11-05T05:25:43.793Z</time>
</trkpt>
<trkpt lat="30.9766700" lon="34.8902100">
<ele>472.240021</ele>
<time>2021-11-05T05:25:43.793Z</time>
</trkpt>
<trkpt lat="30.9767500" lon="34.8904100">
<ele>470.649994</ele>
<time>2021-11-05T05:25:43.793Z</time>
</trkpt>
<trkpt lat="30.9767500" lon="34.8904100">
<ele>470.649994</ele>
<time>2021-11-05T05:25:43.793Z</time>
</trkpt>
<trkpt lat="30.9770700" lon="34.8910100">
<ele>469.839996</ele>
<time>2021-11-05T05:25:43.793Z</time>
</trkpt>
<trkpt lat="30.9773400" lon="34.8913300">
<ele>468.640015</ele>
<time>2021-11-05T05:25:43.793Z</time>
</trkpt>
<trkpt lat="30.9773800" lon="34.8913600">
<ele>468.239990</ele>
<time>2021-11-05T05:25:43.793Z</time>
</trkpt>
<trkpt lat="30.9773600" lon="34.8913800">
<ele>468.500000</ele>
<time>2021-11-05T05:25:43.793Z</time>
</trkpt>
<trkpt lat="30.9775400" lon="34.8915700">
<ele>468.250000</ele>
<time>2021-11-05T05:25:43.793Z</time>
</trkpt>
<trkpt lat="30.9777200" lon="34.8916900">
<ele>468.529999</ele>
<time>2021-11-05T05:25:43.793Z</time>
</trkpt>
<trkpt lat="30.9777800" lon="34.8917400">
<ele>467.419983</ele>
<time>2021-11-05T05:25:43.793Z</time>
</trkpt>
<trkpt lat="30.9780900" lon="34.8921100">
<ele>462.220001</ele>
<time>2021-11-05T05:25:43.793Z</time>
</trkpt>
<trkpt lat="30.9783600" lon="34.8920700">
<ele>465.750000</ele>
<time>2021-11-05T05:25:43.793Z</time>
</trkpt>
<trkpt lat="30.9785400" lon="34.8921600">
<ele>463.709991</ele>
<time>2021-11-05T05:25:43.793Z</time>
</trkpt>
<trkpt lat="30.9787100" lon="34.8921700">
<ele>460.529999</ele>
<time>2021-11-05T05:25:43.793Z</time>
</trkpt>
<trkpt lat="30.9788400" lon="34.8921000">
<ele>458.849976</ele>
<time>2021-11-05T05:25:43.793Z</time>
</trkpt>
<trkpt lat="30.9789700" lon="34.8919500">
<ele>459.799988</ele>
<time>2021-11-05T05:25:43.793Z</time>
</trkpt>
<trkpt lat="30.9791000" lon="34.8918200">
<ele>459.369995</ele>
<time>2021-11-05T05:25:43.793Z</time>
</trkpt>
<trkpt lat="30.9791800" lon="34.8917300">
<ele>459.610016</ele>
<time>2021-11-05T05:25:43.793Z</time>
</trkpt>
<trkpt lat="30.9792100" lon="34.8916300">
<ele>461.330017</ele>
<time>2021-11-05T05:25:43.793Z</time>
</trkpt>
<trkpt lat="30.9792600" lon="34.8914100">
<ele>463.739990</ele>
<time>2021-11-05T05:25:43.793Z</time>
</trkpt>
<trkpt lat="30.9793000" lon="34.8912300">
<ele>464.450012</ele>
<time>2021-11-05T05:25:43.793Z</time>
</trkpt>
<trkpt lat="30.9793000" lon="34.8910600">
<ele>465.410004</ele>
<time>2021-11-05T05:25:43.793Z</time>
</trkpt>
<trkpt lat="30.9793000" lon="34.8909100">
<ele>466.250000</ele>
<time>2021-11-05T05:25:43.793Z</time>
</trkpt>
<trkpt lat="30.9793000" lon="34.8907700">
<ele>466.690002</ele>
<time>2021-11-05T05:25:43.793Z</time>
</trkpt>
<trkpt lat="30.9793000" lon="34.8906100">
<ele>466.709991</ele>
<time>2021-11-05T05:25:43.793Z</time>
</trkpt>
<trkpt lat="30.9792800" lon="34.8904700">
<ele>468.130005</ele>
<time>2021-11-05T05:25:43.793Z</time>
</trkpt>
<trkpt lat="30.9792200" lon="34.8904200">
<ele>470.860016</ele>
<time>2021-11-05T05:25:43.793Z</time>
</trkpt>
<trkpt lat="30.9791400" lon="34.8903700">
<ele>474.259979</ele>
<time>2021-11-05T05:25:43.793Z</time>
</trkpt>
<trkpt lat="30.9790700" lon="34.8903400">
<ele>476.839996</ele>
<time>2021-11-05T05:25:43.793Z</time>
</trkpt>
<trkpt lat="30.9789900" lon="34.8902800">
<ele>479.720001</ele>
<time>2021-11-05T05:25:43.793Z</time>
</trkpt>
<trkpt lat="30.9789000" lon="34.8902200">
<ele>483.070007</ele>
<time>2021-11-05T05:25:43.793Z</time>
</trkpt>
<trkpt lat="30.9788000" lon="34.8901800">
<ele>484.339996</ele>
<time>2021-11-05T05:25:43.793Z</time>
</trkpt>
<trkpt lat="30.9787100" lon="34.8901200">
<ele>485.420013</ele>
<time>2021-11-05T05:25:43.793Z</time>
</trkpt>
<trkpt lat="30.9786600" lon="34.8900800">
<ele>486.070007</ele>
<time>2021-11-05T05:25:43.793Z</time>
</trkpt>
<trkpt lat="30.9786300" lon="34.8899400">
<ele>488.380005</ele>
<time>2021-11-05T05:25:43.793Z</time>
</trkpt>
<trkpt lat="30.9786300" lon="34.8898000">
<ele>491.899994</ele>
<time>2021-11-05T05:25:43.793Z</time>
</trkpt>
<trkpt lat="30.9785900" lon="34.8897100">
<ele>494.169983</ele>
<time>2021-11-05T05:25:43.793Z</time>
</trkpt>
<trkpt lat="30.9786100" lon="34.8897000">
<ele>494.469971</ele>
<time>2021-11-05T05:25:43.793Z</time>
</trkpt>
<trkpt lat="30.9786700" lon="34.8900000">
<ele>486.580017</ele>
<time>2021-11-05T05:25:43.793Z</time>
</trkpt>
<trkpt lat="30.9789500" lon="34.8902600">
<ele>481.179993</ele>
<time>2021-11-05T05:25:43.793Z</time>
</trkpt>
<trkpt lat="30.9792800" lon="34.8904800">
<ele>468.059998</ele>
<time>2021-11-05T05:25:43.793Z</time>
</trkpt>
<trkpt lat="30.9793700" lon="34.8916400">
<ele>460.510010</ele>
<time>2021-11-05T05:25:43.793Z</time>
</trkpt>
<trkpt lat="30.9794600" lon="34.8916800">
<ele>459.980011</ele>
<time>2021-11-05T05:25:43.793Z</time>
</trkpt>
<trkpt lat="30.9795500" lon="34.8919200">
<ele>457.489990</ele>
<time>2021-11-05T05:25:43.793Z</time>
</trkpt>
<trkpt lat="30.9796700" lon="34.8920000">
<ele>456.799988</ele>
<time>2021-11-05T05:25:43.793Z</time>
</trkpt>
<trkpt lat="30.9795100" lon="34.8922300">
<ele>447.869995</ele>
<time>2021-11-05T05:25:43.793Z</time>
</trkpt>
<trkpt lat="30.9794000" lon="34.8923500">
<ele>446.170013</ele>
<time>2021-11-05T05:25:43.793Z</time>
</trkpt>
<trkpt lat="30.9793800" lon="34.8923500">
<ele>446.210022</ele>
<time>2021-11-05T05:25:43.793Z</time>
</trkpt>
<trkpt lat="30.9793800" lon="34.8924400">
<ele>445.480011</ele>
<time>2021-11-05T05:25:43.793Z</time>
</trkpt>
<trkpt lat="30.9793900" lon="34.8925300">
<ele>445.299988</ele>
<time>2021-11-05T05:25:43.793Z</time>
</trkpt>
<trkpt lat="30.9794200" lon="34.8925900">
<ele>445.940002</ele>
<time>2021-11-05T05:25:43.793Z</time>
</trkpt>
<trkpt lat="30.9794800" lon="34.8926400">
<ele>446.510010</ele>
<time>2021-11-05T05:25:43.793Z</time>
</trkpt>
<trkpt lat="30.9796900" lon="34.8927000">
<ele>446.380005</ele>
<time>2021-11-05T05:25:43.793Z</time>
</trkpt>
<trkpt lat="30.9800900" lon="34.8927400">
<ele>448.970001</ele>
<time>2021-11-05T05:25:43.793Z</time>
</trkpt>
<trkpt lat="30.9800900" lon="34.8927400">
<ele>448.970001</ele>
<time>2021-11-05T05:25:43.793Z</time>
</trkpt>
<trkpt lat="30.9801400" lon="34.8927500">
<ele>449.210022</ele>
<time>2021-11-05T05:25:43.793Z</time>
</trkpt>
<trkpt lat="30.9803100" lon="34.8927900">
<ele>450.089996</ele>
<time>2021-11-05T05:25:43.793Z</time>
</trkpt>
<trkpt lat="30.9805900" lon="34.8928900">
<ele>451.079987</ele>
<time>2021-11-05T05:25:43.793Z</time>
</trkpt>
<trkpt lat="30.9809100" lon="34.8930600">
<ele>453.020020</ele>
<time>2021-11-05T05:25:43.793Z</time>
</trkpt>
<trkpt lat="30.9812400" lon="34.8930600">
<ele>452.040009</ele>
<time>2021-11-05T05:25:43.793Z</time>
</trkpt>
<trkpt lat="30.9813100" lon="34.8930700">
<ele>451.440002</ele>
<time>2021-11-05T05:25:43.793Z</time>
</trkpt>
<trkpt lat="30.9813800" lon="34.8931000">
<ele>450.589996</ele>
<time>2021-11-05T05:25:43.793Z</time>
</trkpt>
<trkpt lat="30.9815300" lon="34.8932400">
<ele>447.649994</ele>
<time>2021-11-05T05:25:43.793Z</time>
</trkpt>
<trkpt lat="30.9816400" lon="34.8933800">
<ele>446.330017</ele>
<time>2021-11-05T05:25:43.793Z</time>
</trkpt>
<trkpt lat="30.9817600" lon="34.8936800">
<ele>448.839996</ele>
<time>2021-11-05T05:25:43.793Z</time>
</trkpt>
<trkpt lat="30.9818300" lon="34.8938200">
<ele>452.609985</ele>
<time>2021-11-05T05:25:43.793Z</time>
</trkpt>
<trkpt lat="30.9819000" lon="34.8939000">
<ele>456.589996</ele>
<time>2021-11-05T05:25:43.793Z</time>
</trkpt>
<trkpt lat="30.9820900" lon="34.8940500">
<ele>468.239990</ele>
<time>2021-11-05T05:25:43.793Z</time>
</trkpt>
<trkpt lat="30.9822300" lon="34.8941600">
<ele>476.970001</ele>
<time>2021-11-05T05:25:43.793Z</time>
</trkpt>
<trkpt lat="30.9823300" lon="34.8942600">
<ele>477.570007</ele>
<time>2021-11-05T05:25:43.793Z</time>
</trkpt>
<trkpt lat="30.9825000" lon="34.8944700">
<ele>476.539978</ele>
<time>2021-11-05T05:25:43.793Z</time>
</trkpt>
<trkpt lat="30.9825600" lon="34.8945200">
<ele>475.639984</ele>
<time>2021-11-05T05:25:43.793Z</time>
</trkpt>
<trkpt lat="30.9828200" lon="34.8946400">
<ele>473.500000</ele>
<time>2021-11-05T05:25:43.793Z</time>
</trkpt>
<trkpt lat="30.9828800" lon="34.8946900">
<ele>472.820007</ele>
<time>2021-11-05T05:25:43.793Z</time>
</trkpt>
<trkpt lat="30.9829000" lon="34.8947600">
<ele>472.110016</ele>
<time>2021-11-05T05:25:43.793Z</time>
</trkpt>
<trkpt lat="30.9828800" lon="34.8948400">
<ele>471.359985</ele>
<time>2021-11-05T05:25:43.793Z</time>
</trkpt>
<trkpt lat="30.9826300" lon="34.8952000">
<ele>469.859985</ele>
<time>2021-11-05T05:25:43.793Z</time>
</trkpt>
<trkpt lat="30.9824500" lon="34.8955700">
<ele>469.049988</ele>
<time>2021-11-05T05:25:43.793Z</time>
</trkpt>
<trkpt lat="30.9824200" lon="34.8956800">
<ele>470.649994</ele>
<time>2021-11-05T05:25:43.793Z</time>
</trkpt>
<trkpt lat="30.9822800" lon="34.8965400">
<ele>473.429993</ele>
<time>2021-11-05T05:25:43.793Z</time>
</trkpt>
<trkpt lat="30.9821600" lon="34.8968600">
<ele>468.809998</ele>
<time>2021-11-05T05:25:43.793Z</time>
</trkpt>
<trkpt lat="30.9819300" lon="34.8973300">
<ele>473.079987</ele>
<time>2021-11-05T05:25:43.793Z</time>
</trkpt>
<trkpt lat="30.9818300" lon="34.8977000">
<ele>473.709991</ele>
<time>2021-11-05T05:25:43.793Z</time>
</trkpt>
<trkpt lat="30.9818200" lon="34.8978600">
<ele>474.029999</ele>
<time>2021-11-05T05:25:43.793Z</time>
</trkpt>
<trkpt lat="30.9818500" lon="34.8980300">
<ele>473.990021</ele>
<time>2021-11-05T05:25:43.793Z</time>
</trkpt>
<trkpt lat="30.9819000" lon="34.8981600">
<ele>473.160004</ele>
<time>2021-11-05T05:25:43.793Z</time>
</trkpt>
<trkpt lat="30.9821100" lon="34.8986000">
<ele>464.880005</ele>
<time>2021-11-05T05:25:43.793Z</time>
</trkpt>
<trkpt lat="30.9823600" lon="34.8990400">
<ele>459.559998</ele>
<time>2021-11-05T05:25:43.793Z</time>
</trkpt>
<trkpt lat="30.9824000" lon="34.8990700">
<ele>459.270020</ele>
<time>2021-11-05T05:25:43.793Z</time>
</trkpt>
<trkpt lat="30.9824300" lon="34.8991500">
<ele>459.409973</ele>
<time>2021-11-05T05:25:43.793Z</time>
</trkpt>
<trkpt lat="30.9824000" lon="34.8991700">
<ele>459.730011</ele>
<time>2021-11-05T05:25:43.793Z</time>
</trkpt>
<trkpt lat="30.9824300" lon="34.8991500">
<ele>459.409973</ele>
<time>2021-11-05T05:25:43.793Z</time>
</trkpt>
<trkpt lat="30.9825700" lon="34.8994500">
<ele>458.249969</ele>
<time>2021-11-05T05:25:43.793Z</time>
</trkpt>
<trkpt lat="30.9826500" lon="34.8999800">
<ele>454.059998</ele>
<time>2021-11-05T05:25:43.793Z</time>
</trkpt>
<trkpt lat="30.9827700" lon="34.9002200">
<ele>445.490021</ele>
<time>2021-11-05T05:25:43.793Z</time>
</trkpt>
<trkpt lat="30.9828200" lon="34.9006100">
<ele>444.059998</ele>
<time>2021-11-05T05:25:43.793Z</time>
</trkpt>
<trkpt lat="30.9832500" lon="34.9011000">
<ele>447.240021</ele>
<time>2021-11-05T05:25:43.793Z</time>
</trkpt>
<trkpt lat="30.9835000" lon="34.9016500">
<ele>445.140015</ele>
<time>2021-11-05T05:25:43.793Z</time>
</trkpt>
<trkpt lat="30.9835000" lon="34.9016500">
<ele>445.140015</ele>
<time>2021-11-05T05:25:43.793Z</time>
</trkpt>
<trkpt lat="30.9835600" lon="34.9017800">
<ele>444.110016</ele>
<time>2021-11-05T05:25:43.793Z</time>
</trkpt>
<trkpt lat="30.9838500" lon="34.9024200">
<ele>443.770020</ele>
<time>2021-11-05T05:25:43.793Z</time>
</trkpt>
<trkpt lat="30.9841700" lon="34.9026000">
<ele>447.750000</ele>
<time>2021-11-05T05:25:43.793Z</time>
</trkpt>
<trkpt lat="30.9843700" lon="34.9030700">
<ele>452.940033</ele>
<time>2021-11-05T05:25:43.793Z</time>
</trkpt>
<trkpt lat="30.9847000" lon="34.9040400">
<ele>460.410004</ele>
<time>2021-11-05T05:25:43.793Z</time>
</trkpt>
<trkpt lat="30.9845700" lon="34.9050200">
<ele>462.640015</ele>
<time>2021-11-05T05:25:43.793Z</time>
</trkpt>
<trkpt lat="30.9849400" lon="34.9053800">
<ele>463.429993</ele>
<time>2021-11-05T05:25:43.793Z</time>
</trkpt>
<trkpt lat="30.9852400" lon="34.9062100">
<ele>455.330017</ele>
<time>2021-11-05T05:25:43.793Z</time>
</trkpt>
<trkpt lat="30.9853000" lon="34.9062100">
<ele>454.850006</ele>
<time>2021-11-05T05:25:43.793Z</time>
</trkpt>
<trkpt lat="30.9853400" lon="34.9062000">
<ele>454.540009</ele>
<time>2021-11-05T05:25:43.793Z</time>
</trkpt>
<trkpt lat="30.9854300" lon="34.9061700">
<ele>453.700012</ele>
<time>2021-11-05T05:25:43.793Z</time>
</trkpt>
<trkpt lat="30.9855400" lon="34.9061700">
<ele>452.769989</ele>
<time>2021-11-05T05:25:43.793Z</time>
</trkpt>
<trkpt lat="30.9856900" lon="34.9061500">
<ele>452.769989</ele>
<time>2021-11-05T05:25:43.793Z</time>
</trkpt>
<trkpt lat="30.9857300" lon="34.9061500">
<ele>452.869995</ele>
<time>2021-11-05T05:25:43.793Z</time>
</trkpt>
<trkpt lat="30.9857600" lon="34.9061500">
<ele>452.949982</ele>
<time>2021-11-05T05:25:43.793Z</time>
</trkpt>
<trkpt lat="30.9858800" lon="34.9061800">
<ele>452.949982</ele>
<time>2021-11-05T05:25:43.793Z</time>
</trkpt>
<trkpt lat="30.9859900" lon="34.9062000">
<ele>452.369995</ele>
<time>2021-11-05T05:25:43.793Z</time>
</trkpt>
<trkpt lat="30.9860900" lon="34.9062300">
<ele>451.980011</ele>
<time>2021-11-05T05:25:43.793Z</time>
</trkpt>
<trkpt lat="30.9862200" lon="34.9063200">
<ele>454.170013</ele>
<time>2021-11-05T05:25:43.793Z</time>
</trkpt>
<trkpt lat="30.9863100" lon="34.9064100">
<ele>456.000000</ele>
<time>2021-11-05T05:25:43.793Z</time>
</trkpt>
<trkpt lat="30.9864000" lon="34.9065000">
<ele>457.349976</ele>
<time>2021-11-05T05:25:43.793Z</time>
</trkpt>
<trkpt lat="30.9865200" lon="34.9065800">
<ele>457.390015</ele>
<time>2021-11-05T05:25:43.793Z</time>
</trkpt>
<trkpt lat="30.9866500" lon="34.9067900">
<ele>457.560028</ele>
<time>2021-11-05T05:25:43.793Z</time>
</trkpt>
<trkpt lat="30.9867600" lon="34.9068900">
<ele>457.000000</ele>
<time>2021-11-05T05:25:43.793Z</time>
</trkpt>
<trkpt lat="30.9868800" lon="34.9071200">
<ele>456.220001</ele>
<time>2021-11-05T05:25:43.793Z</time>
</trkpt>
<trkpt lat="30.9868800" lon="34.9071200">
<ele>456.220001</ele>
<time>2021-11-05T05:25:43.793Z</time>
</trkpt>
<trkpt lat="30.9869700" lon="34.9072800">
<ele>456.279968</ele>
<time>2021-11-05T05:25:43.793Z</time>
</trkpt>
<trkpt lat="30.9875000" lon="34.9078700">
<ele>454.339996</ele>
<time>2021-11-05T05:25:43.793Z</time>
</trkpt>
<trkpt lat="30.9882300" lon="34.9084400">
<ele>463.959991</ele>
<time>2021-11-05T05:25:43.793Z</time>
</trkpt>
<trkpt lat="30.9888900" lon="34.9088600">
<ele>456.089996</ele>
<time>2021-11-05T05:25:43.793Z</time>
</trkpt>
<trkpt lat="30.9888700" lon="34.9089000">
<ele>456.040009</ele>
<time>2021-11-05T05:25:43.793Z</time>
</trkpt>
<trkpt lat="30.9891100" lon="34.9090600">
<ele>452.129974</ele>
<time>2021-11-05T05:25:43.793Z</time>
</trkpt>
<trkpt lat="30.9896700" lon="34.9094100">
<ele>448.820007</ele>
<time>2021-11-05T05:25:43.793Z</time>
</trkpt>
<trkpt lat="30.9901600" lon="34.9097400">
<ele>453.690002</ele>
<time>2021-11-05T05:25:43.793Z</time>
</trkpt>
<trkpt lat="30.9903100" lon="34.9101500">
<ele>453.750000</ele>
<time>2021-11-05T05:25:43.793Z</time>
</trkpt>
<trkpt lat="30.9902600" lon="34.9105100">
<ele>452.290009</ele>
<time>2021-11-05T05:25:43.793Z</time>
</trkpt>
<trkpt lat="30.9902000" lon="34.9106800">
<ele>454.099976</ele>
<time>2021-11-05T05:25:43.793Z</time>
</trkpt>
<trkpt lat="30.9900700" lon="34.9110200">
<ele>457.019989</ele>
<time>2021-11-05T05:25:43.793Z</time>
</trkpt>
<trkpt lat="30.9897500" lon="34.9114600">
<ele>452.739990</ele>
<time>2021-11-05T05:25:43.793Z</time>
</trkpt>
<trkpt lat="30.9897700" lon="34.9119500">
<ele>453.820007</ele>
<time>2021-11-05T05:25:43.793Z</time>
</trkpt>
<trkpt lat="30.9895500" lon="34.9118800">
<ele>455.380005</ele>
<time>2021-11-05T05:25:43.793Z</time>
</trkpt>
<trkpt lat="30.9890500" lon="34.9114900">
<ele>463.399994</ele>
<time>2021-11-05T05:25:43.793Z</time>
</trkpt>
<trkpt lat="30.9888100" lon="34.9115900">
<ele>462.510010</ele>
<time>2021-11-05T05:25:43.793Z</time>
</trkpt>
<trkpt lat="30.9887700" lon="34.9115200">
<ele>463.089996</ele>
<time>2021-11-05T05:25:43.793Z</time>
</trkpt>
<trkpt lat="30.9889300" lon="34.9114000">
<ele>467.000000</ele>
<time>2021-11-05T05:25:43.793Z</time>
</trkpt>
</trkseg>
</trk>
</gpx>
